KC8P Weather Reports


time (UTC)temp
C
wind
direction
speed
KPH
gust
KPH
rain 1hr
cm
rain 24hr
cm
rain mn
cm
humidity
%
barometer
mb
20260502130747 4 29 3.2 14.5 0.00 0.00 0.00 70 1017.7
20260502130641 4 342 0.0 14.5 0.00 0.00 0.00 70 1017.7
20260502130536 4 338 4.8 14.5 0.00 0.00 0.00 70 1017.7
20260502130430 4 340 8.0 14.5 0.00 0.00 0.00 70 1017.7
20260502130325 4 304 3.2 14.5 0.00 0.00 0.00 71 1017.7
20260502130220 4 56 0.0 14.5 0.00 0.00 0.00 72 1017.7
20260502130114 4 333 6.4 14.5 0.00 0.00 0.00 70 1017.7
20260502123750 3 279 0.0 11.3 0.00 0.00 0.00 78 1017.7
20260502123711 3 334 4.8 11.3 0.00 0.00 0.00 78 1017.7
20260502123605 3 351 1.6 11.3 0.00 0.00 0.00 78 1017.7
20260502123459 3 320 3.2 9.7 0.00 0.00 0.00 78 1017.7
20260502123354 3 326 3.2 9.7 0.00 0.00 0.00 78 1017.7
20260502123247 3 321 4.8 9.7 0.00 0.00 0.00 79 1017.7
20260502123142 3 260 1.6 9.7 0.00 0.00 0.00 79 1017.7
20260502123034 3 312 3.2 9.7 0.00 0.00 0.00 79 1017.7
20260502122929 3 334 6.4 9.7 0.00 0.00 0.00 79 1017.7
20260502122823 3 314 0.0 9.7 0.00 0.00 0.00 80 1017.7
20260502122735 3 342 3.2 9.7 0.00 0.00 0.00 80 1017.7
20260502122717 3 337 1.6 9.7 0.00 0.00 0.00 80 1017.7
20260502122612 3 317 3.2 11.3 0.00 0.00 0.00 80 1017.3
20260502122506 3 320 8.0 11.3 0.00 0.00 0.00 80 1017.7
20260502122401 2 276 3.2 11.3 0.00 0.00 0.00 81 1017.3
20260502122255 2 331 4.8 11.3 0.00 0.00 0.00 81 1017.7
20260502122229 2 273 1.6 11.3 0.00 0.00 0.00 81 1017.7
20260502122148 2 3 3.2 11.3 0.00 0.00 0.00 81 1017.7
20260502122043 2 339 3.2 11.3 0.00 0.00 0.00 81 1017.7
20260502121937 2 305 4.8 11.3 0.00 0.00 0.00 81 1017.7
20260502121831 2 327 6.4 11.3 0.00 0.00 0.00 81 1017.3
20260502121726 2 346 9.7 11.3 0.00 0.00 0.00 82 1017.7
20260502121620 2 279 3.2 11.3 0.00 0.00 0.00 82 1017.7
20260502121515 2 303 1.6 9.7 0.00 0.00 0.00 82 1017.7
20260502121409 2 300 3.2 9.7 0.00 0.00 0.00 82 1017.7
20260502121303 2 289 1.6 9.7 0.00 0.00 0.00 82 1017.7
20260502121216 2 10 3.2 9.7 0.00 0.00 0.00 82 1017.3
20260502121158 2 175 1.6 9.7 0.00 0.00 0.00 83 1017.3
20260502121052 2 275 6.4 9.7 0.00 0.00 0.00 82 1017.3
20260502120947 2 329 4.8 9.7 0.00 0.00 0.00 83 1017.3
20260502120841 2 258 1.6 9.7 0.00 0.00 0.00 83 1017.3
20260502120735 2 335 6.4 9.7 0.00 0.00 0.00 84 1017.3
20260502120709 2 315 4.8 9.7 0.00 0.00 0.00 84 1017.7
20260502120629 2 311 3.2 9.7 0.00 0.00 0.00 84 1017.7
20260502120524 2 303 1.6 4.8 0.00 0.00 0.00 85 1017.3
20260502120419 2 306 3.2 4.8 0.00 0.00 0.00 85 1017.7
20260502120312 2 345 4.8 4.8 0.00 0.00 0.00 86 1017.3
20260502120207 1 283 1.6 4.8 0.00 0.00 0.00 86 1017.7
20260502120110 1 298 1.6 4.8 0.00 0.00 0.00 86 1017.7
20260502115851 1 303 0.0 0.0 0.00 0.00 0.00 87 1017.3
20260502115745 1 19 0.0 0.0 0.00 0.00 0.00 87 1017.3
20260502115657 1 320 0.0 0.0 0.00 0.00 0.00 88 1017.3
20260502115637 1 356 0.0 0.0 0.00 0.00 0.00 88 1017.3
20260502115531 1 311 0.0 0.0 0.00 0.00 0.00 88 1017.7
20260502115425 1 328 0.0 0.0 0.00 0.00 0.00 88 1017.7
20260502115320 1 311 0.0 0.0 0.00 0.00 0.00 88 1017.7
20260502115215 1 335 0.0 0.0 0.00 0.00 0.00 88 1017.7
20260502115149 1 335 0.0 0.0 0.00 0.00 0.00 89 1017.7
20260502115108 1 343 0.0 0.0 0.00 0.00 0.00 89 1017.7
20260502115004 1 336 0.0 0.0 0.00 0.00 0.00 89 1017.7
20260502114858 0 335 0.0 0.0 0.00 0.00 0.00 89 1017.7
20260502114752 0 345 0.0 0.0 0.00 0.00 0.00 89 1017.3
20260502114641 0 340 0.0 0.0 0.00 0.00 0.00 89 1017.7
20260502114535 0 344 0.0 0.0 0.00 0.00 0.00 89 1017.7
20260502114429 0 347 0.0 0.0 0.00 0.00 0.00 89 1017.3
20260502114324 0 339 0.0 0.0 0.00 0.00 0.00 89 1017.3
20260502114219 0 341 0.0 0.0 0.00 0.00 0.00 89 1017.7
20260502114130 0 347 0.0 0.0 0.00 0.00 0.00 89 1017.7
20260502114113 0 334 0.0 0.0 0.00 0.00 0.00 89 1017.3
20260502114007 0 333 0.0 0.0 0.00 0.00 0.00 89 1017.7
20260502113901 0 337 0.0 0.0 0.00 0.00 0.00 89 1017.3
20260502113756 0 344 0.0 0.0 0.00 0.00 0.00 89 1017.7
20260502113650 0 327 0.0 0.0 0.00 0.00 0.00 89 1017.7
20260502113622 0 327 0.0 0.0 0.00 0.00 0.00 89 1017.3
20260502113543 0 326 0.0 0.0 0.00 0.00 0.00 89 1017.3
20260502113437 0 336 0.0 0.0 0.00 0.00 0.00 89 1017.3
20260502113331 0 336 0.0 0.0 0.00 0.00 0.00 89 1017.3
20260502113226 0 336 0.0 0.0 0.00 0.00 0.00 89 1017.7
20260502113120 0 336 0.0 0.0 0.00 0.00 0.00 89 1017.7
20260502113015 0 336 0.0 0.0 0.00 0.00 0.00 89 1017.3
20260502112910 0 336 0.0 0.0 0.00 0.00 0.00 89 1017.3
20260502112804 0 336 0.0 0.0 0.00 0.00 0.00 89 1017.3
20260502112658 0 336 0.0 0.0 0.00 0.00 0.00 89 1017.3
20260502112610 0 336 0.0 0.0 0.00 0.00 0.00 89 1017.3
20260502112552 0 336 0.0 0.0 0.00 0.00 0.00 89 1017.3
20260502112447 0 336 0.0 0.0 0.00 0.00 0.00 89 1017.3
20260502112340 0 336 0.0 0.0 0.00 0.00 0.00 89 1017.3
20260502112235 0 336 0.0 0.0 0.00 0.00 0.00 89 1017.3
20260502112103 0 336 0.0 0.0 0.00 0.00 0.00 89 1017.3
20260502112024 0 336 0.0 0.0 0.00 0.00 0.00 89 1017.3
20260502111918 0 336 0.0 0.0 0.00 0.00 0.00 89 1017.3
20260502111814 0 336 0.0 0.0 0.00 0.00 0.00 89 1017.3
20260502111717 0 336 0.0 0.0 0.00 0.00 0.00 89 1017.3
20260502111602 0 337 0.0 0.0 0.00 0.00 0.00 89 1017.3
20260502111454 0 337 0.0 0.0 0.00 0.00 0.00 89 1017.3
20260502111349 0 341 0.0 0.0 0.00 0.00 0.00 89 1017.3
20260502111244 0 341 0.0 0.0 0.00 0.00 0.00 89 1017.3
20260502111139 0 341 0.0 0.0 0.00 0.00 0.00 89 1017.3
20260502111049 0 341 0.0 0.0 0.00 0.00 0.00 89 1017.3
20260502111032 0 342 0.0 0.0 0.00 0.00 0.00 89 1017.3
20260502110926 0 342 0.0 0.0 0.00 0.00 0.00 89 1017.3
20260502110820 0 3 0.0 0.0 0.00 0.00 0.00 89 1017.3
20260502110715 0 3 0.0 0.0 0.00 0.00 0.00 89 1017.3
20260502110609 0 6 0.0 0.0 0.00 0.00 0.00 89 1017.3
20260502110543 0 5 0.0 0.0 0.00 0.00 0.00 89 1017.3
20260502110504 0 6 0.0 0.0 0.00 0.00 0.00 89 1016.9
20260502110358 0 6 0.0 0.0 0.00 0.00 0.00 89 1017.3
20260502110252 0 8 0.0 0.0 0.00 0.00 0.00 89 1017.3
20260502110147 0 8 0.0 0.0 0.00 0.00 0.00 89 1017.3
20260502110041 0 8 0.0 0.0 0.00 0.00 0.00 89 1017.3
20260502105935 0 8 0.0 0.0 0.00 0.00 0.00 89 1017.3
20260502105830 0 8 0.0 0.0 0.00 0.00 0.00 89 1017.3
20260502105724 0 8 0.0 0.0 0.00 0.00 0.00 89 1017.3
20260502105618 0 8 0.0 0.0 0.00 0.00 0.00 89 1017.3
20260502105530 0 8 0.0 0.0 0.00 0.00 0.00 89 1017.3
20260502105513 0 8 0.0 0.0 0.00 0.00 0.00 89 1017.3
20260502105406 0 13 0.0 0.0 0.00 0.00 0.00 89 1017.3
20260502105302 0 35 0.0 0.0 0.00 0.00 0.00 89 1017.3
20260502105156 0 36 0.0 0.0 0.00 0.00 0.00 89 1017.3
20260502105050 0 49 0.0 0.0 0.00 0.00 0.00 89 1017.3
20260502105023 0 62 0.0 0.0 0.00 0.00 0.00 89 1017.3
20260502104945 0 64 0.0 0.0 0.00 0.00 0.00 89 1017.3
20260502104839 0 67 0.0 0.0 0.00 0.00 0.00 89 1017.3
20260502104733 0 68 0.0 0.0 0.00 0.00 0.00 89 1017.3
20260502104627 0 83 0.0 0.0 0.00 0.00 0.00 89 1016.9
20260502104521 0 96 0.0 0.0 0.00 0.00 0.00 89 1016.9
20260502104415 0 123 0.0 0.0 0.00 0.00 0.00 89 1016.9
20260502104310 0 126 0.0 0.0 0.00 0.00 0.00 89 1017.3
20260502104205 0 134 0.0 0.0 0.00 0.00 0.00 88 1017.3
20260502104050 0 135 0.0 0.0 0.00 0.00 0.00 88 1017.3
20260502104013 0 135 0.0 0.0 0.00 0.00 0.00 88 1016.9
20260502103944 0 135 0.0 0.0 0.00 0.00 0.00 88 1016.9
20260502103838 0 135 0.0 0.0 0.00 0.00 0.00 88 1016.9
20260502103734 0 135 0.0 0.0 0.00 0.00 0.00 88 1017.3
20260502103628 0 135 0.0 0.0 0.00 0.00 0.00 88 1017.3
20260502103541 0 135 0.0 0.0 0.00 0.00 0.00 87 1017.3
20260502103526 0 135 0.0 0.0 0.00 0.00 0.00 88 1017.3
20260502103522 0 135 0.0 0.0 0.00 0.00 0.00 88 1017.3
20260502103513 0 135 0.0 0.0 0.00 0.00 0.00 88 1017.3
20260502103248 0 135 0.0 0.0 0.00 0.00 0.00 88 1016.9
20260502103240 0 135 0.0 0.0 0.00 0.00 0.00 88 1016.9
20260502103017 0 135 0.0 0.0 0.00 0.00 0.00 88 1017.3
20260502103013 0 135 0.0 0.0 0.00 0.00 0.00 88 1017.3
20260502103005 0 135 0.0 0.0 0.00 0.00 0.00 87 1017.3
20260502102956 0 135 0.0 0.0 0.00 0.00 0.00 87 1017.3
20260502102731 0 135 0.0 0.0 0.00 0.00 0.00 87 1017.3
20260502102722 0 135 0.0 0.0 0.00 0.00 0.00 87 1017.3
20260502102456 0 135 0.0 0.0 0.00 0.00 0.00 87 1017.3
20260502102452 0 135 0.0 0.0 0.00 0.00 0.00 87 1016.9
20260502102444 0 135 0.0 0.0 0.00 0.00 0.00 87 1017.3
20260502102223 0 135 0.0 0.0 0.00 0.00 0.00 87 1016.9
20260502102215 0 135 0.0 0.0 0.00 0.00 0.00 87 1016.9
20260502102206 0 135 0.0 0.0 0.00 0.00 0.00 87 1017.3
20260502101856 0 135 0.0 0.0 0.00 0.00 0.00 87 1017.3
20260502101751 0 135 0.0 0.0 0.00 0.00 0.00 87 1016.9
20260502101646 0 135 0.0 0.0 0.00 0.00 0.00 87 1016.9
20260502101540 0 135 0.0 0.0 0.00 0.00 0.00 87 1016.9
20260502101523 1 135 0.0 0.0 0.00 0.00 0.00 85 1017.3
20260502101518 1 135 0.0 0.0 0.00 0.00 0.00 85 1016.9
20260502101508 0 135 0.0 0.0 0.00 0.00 0.00 86 1017.3
20260502101500 0 135 0.0 0.0 0.00 0.00 0.00 86 1016.9
20260502101238 0 135 0.0 0.0 0.00 0.00 0.00 86 1016.9
20260502101230 0 135 0.0 0.0 0.00 0.00 0.00 86 1016.9
20260502101221 0 135 0.0 0.0 0.00 0.00 0.00 86 1016.9
20260502100951 0 135 0.0 0.0 0.00 0.00 0.00 86 1016.9
20260502100942 0 135 0.0 0.0 0.00 0.00 0.00 86 1016.9
20260502100723 0 135 0.0 0.0 0.00 0.00 0.00 86 1016.9
20260502100714 0 135 0.0 0.0 0.00 0.00 0.00 86 1016.9
20260502100443 0 135 0.0 0.0 0.00 0.00 0.00 85 1016.9
20260502100439 0 135 0.0 0.0 0.00 0.00 0.00 85 1016.9
20260502100430 0 135 0.0 0.0 0.00 0.00 0.00 85 1016.9
20260502100409 0 135 0.0 0.0 0.00 0.00 0.00 85 1016.9
20260502100400 1 135 0.0 0.0 0.00 0.00 0.00 85 1016.9
20260502100350 1 135 0.0 0.0 0.00 0.00 0.00 85 1017.3
20260502091335 1 135 0.0 0.0 0.00 0.00 0.00 83 1016.6
20260502091326 1 135 0.0 0.0 0.00 0.00 0.00 83 1016.9
20260502091318 1 135 0.0 0.0 0.00 0.00 0.00 83 1016.9
20260502091055 1 135 0.0 0.0 0.00 0.00 0.00 83 1016.9
20260502091046 1 135 0.0 0.0 0.00 0.00 0.00 83 1016.9
20260502090824 1 135 0.0 0.0 0.00 0.00 0.00 83 1016.9
20260502090816 1 135 0.0 0.0 0.00 0.00 0.00 83 1016.9
20260502090555 1 135 0.0 0.0 0.00 0.00 0.00 83 1016.9
20260502090551 1 135 0.0 0.0 0.00 0.00 0.00 83 1016.9
20260502090543 1 135 0.0 0.0 0.00 0.00 0.00 83 1016.9
20260502090534 1 135 0.0 0.0 0.00 0.00 0.00 83 1016.9
20260502090312 1 135 0.0 0.0 0.00 0.00 0.00 83 1016.6
20260502090304 1 135 0.0 0.0 0.00 0.00 0.00 83 1016.9
20260502071500 2 124 0.0 0.0 0.00 0.00 0.00 83 1016.6
20260502071354 2 124 0.0 0.0 0.00 0.00 0.00 83 1016.9
20260502071248 2 124 0.0 0.0 0.00 0.00 0.00 83 1016.6
20260502071142 2 124 0.0 0.0 0.00 0.00 0.00 83 1016.6
20260502071037 2 124 0.0 0.0 0.00 0.00 0.00 83 1016.6
20260502070932 2 124 0.0 0.0 0.00 0.00 0.00 83 1016.3
20260502070826 2 124 0.0 0.0 0.00 0.00 0.00 83 1016.6
20260502070720 1 123 0.0 0.0 0.00 0.00 0.00 83 1016.6
20260502070648 1 124 0.0 0.0 0.00 0.00 0.00 82 1016.9
20260502070642 2 124 0.0 0.0 0.00 0.00 0.00 83 1016.9
20260502070638 1 124 0.0 0.0 0.00 0.00 0.00 83 1016.6
20260502070623 2 124 0.0 0.0 0.00 0.00 0.00 83 1016.9
20260502070615 2 124 0.0 0.0 0.00 0.00 0.00 83 1016.9
20260502070345 2 124 0.0 0.0 0.00 0.00 0.00 83 1016.9
20260502070336 2 124 0.0 0.0 0.00 0.00 0.00 83 1016.9
20260502070327 2 124 0.0 0.0 0.00 0.00 0.00 83 1016.6
20260502070041 2 124 0.0 0.0 0.00 0.00 0.00 83 1016.9
20260502065821 2 124 0.0 0.0 0.00 0.00 0.00 83 1016.6
20260502065813 2 124 0.0 0.0 0.00 0.00 0.00 83 1016.6
20260502065543 2 124 0.0 0.0 0.00 0.00 0.00 83 1016.6
20260502065535 2 124 0.0 0.0 0.00 0.00 0.00 83 1016.6
20260502065314 2 124 0.0 0.0 0.00 0.00 0.00 83 1016.6
20260502065306 2 124 0.0 0.0 0.00 0.00 0.00 83 1016.6
20260502065257 2 124 0.0 0.0 0.00 0.00 0.00 83 1016.9
20260502065030 2 124 0.0 0.0 0.00 0.00 0.00 83 1016.9
20260502065026 2 124 0.0 0.0 0.00 0.00 0.00 83 1016.9
20260502065017 2 124 0.0 0.0 0.00 0.00 0.00 83 1016.9
20260502064757 2 124 0.0 0.0 0.00 0.00 0.00 83 1016.9
20260502064748 2 124 0.0 0.0 0.00 0.00 0.00 83 1016.9
20260502064740 2 124 0.0 0.0 0.00 0.00 0.00 83 1016.9
20260502064519 1 124 0.0 0.0 0.00 0.00 0.00 82 1016.9
20260502064510 1 124 0.0 0.0 0.00 0.00 0.00 82 1016.9
20260502064250 1 123 0.0 0.0 0.00 0.00 0.00 82 1016.9
20260502064245 1 124 0.0 0.0 0.00 0.00 0.00 82 1016.9
20260502064236 1 124 0.0 0.0 0.00 0.00 0.00 82 1016.9
20260502064221 1 124 0.0 0.0 0.00 0.00 0.00 82 1016.9
20260502063958 1 124 0.0 0.0 0.00 0.00 0.00 83 1016.9
20260502063937 1 124 0.0 0.0 0.00 0.00 0.00 82 1016.9
20260502063714 1 123 0.0 0.0 0.00 0.00 0.00 82 1016.9
20260502063706 1 123 0.0 0.0 0.00 0.00 0.00 82 1016.9
20260502063430 1 123 0.0 0.0 0.00 0.00 0.00 82 1016.9
20260502063326 1 123 0.0 0.0 0.00 0.00 0.00 82 1016.9
20260502063244 1 123 0.0 0.0 0.00 0.00 0.00 82 1016.9
20260502063240 1 123 0.0 0.0 0.00 0.00 0.00 82 1016.9
20260502063232 1 123 0.0 0.0 0.00 0.00 0.00 82 1016.9
20260502063011 1 123 0.0 0.0 0.00 0.00 0.00 82 1016.9
20260502063000 1 123 0.0 0.0 0.00 0.00 0.00 82 1016.9
20260502062956 1 123 0.0 0.0 0.00 0.00 0.00 82 1016.9
20260502062948 1 123 0.0 0.0 0.00 0.00 0.00 82 1016.9
20260502062727 1 123 0.0 0.0 0.00 0.00 0.00 82 1016.9
20260502062706 1 123 0.0 0.0 0.00 0.00 0.00 82 1016.9
20260502062655 1 123 0.0 0.0 0.00 0.00 0.00 82 1016.9
20260502062348 1 123 0.0 0.0 0.00 0.00 0.00 82 1016.9
20260502062231 1 123 0.0 0.0 0.00 0.00 0.00 82 1017.3
20260502062125 1 123 0.0 0.0 0.00 0.00 0.00 83 1017.3
20260502062019 1 123 0.0 0.0 0.00 0.00 0.00 83 1016.9
20260502061914 1 122 0.0 0.0 0.00 0.00 0.00 83 1016.9
20260502061809 1 122 0.0 0.0 0.00 0.00 0.00 83 1016.9
20260502061702 1 122 0.0 0.0 0.00 0.00 0.00 83 1016.9
20260502061556 1 122 0.0 0.0 0.00 0.00 0.00 83 1017.3
20260502061423 1 121 0.0 0.0 0.00 0.00 0.00 83 1017.3
20260502061343 1 120 0.0 0.0 0.00 0.00 0.00 83 1017.3
20260502061237 1 109 0.0 0.0 0.00 0.00 0.00 83 1017.7
20260502061132 1 109 0.0 0.0 0.00 0.00 0.00 82 1017.3
20260502061026 1 108 0.0 0.0 0.00 0.00 0.00 82 1017.3
20260502060920 1 108 0.0 0.0 0.00 0.00 0.00 82 1016.9
20260502060815 1 108 0.0 0.0 0.00 0.00 0.00 82 1016.9
20260502060709 1 108 0.0 0.0 0.00 0.00 0.00 82 1017.3
20260502060601 1 108 0.0 0.0 0.00 0.00 0.00 82 1016.9
20260502060457 1 108 0.0 0.0 0.00 0.00 0.00 82 1017.3
20260502060407 1 108 0.0 0.0 0.00 0.00 0.00 82 1016.9
20260502060350 1 108 0.0 0.0 0.00 0.00 0.00 82 1016.9
20260502060244 1 108 0.0 0.0 0.00 0.00 0.00 82 1016.9
20260502060139 1 108 0.0 0.0 0.00 0.00 0.00 82 1016.9
20260502060033 1 108 0.0 0.0 0.00 0.00 0.00 82 1016.9
20260502055901 1 108 0.0 0.0 0.00 0.00 0.00 82 1017.3
20260502055821 1 108 0.0 0.0 0.00 0.00 0.00 82 1017.3
20260502055715 1 108 0.0 0.0 0.00 0.00 0.00 82 1017.3
20260502055610 1 108 0.0 0.0 0.00 0.00 0.00 82 1017.3
20260502055505 1 108 0.0 0.0 0.00 0.00 0.00 82 1017.3
20260502055358 1 108 0.0 0.0 0.00 0.00 0.00 82 1017.3
20260502055252 1 108 0.0 0.0 0.00 0.00 0.00 82 1017.3
20260502055147 1 108 0.0 0.0 0.00 0.00 0.00 82 1017.3
20260502055043 1 108 0.0 0.0 0.00 0.00 0.00 82 1017.3
20260502054938 1 108 0.0 0.0 0.00 0.00 0.00 82 1017.3
20260502054832 1 108 0.0 0.0 0.00 0.00 0.00 82 1017.3
20260502054727 1 108 0.0 0.0 0.00 0.00 0.00 82 1016.9
20260502054634 1 108 0.0 0.0 0.00 0.00 0.00 82 1017.3
20260502054515 1 108 0.0 0.0 0.00 0.00 0.00 82 1017.3
20260502054409 1 108 0.0 0.0 0.00 0.00 0.00 81 1017.3
20260502054343 1 108 0.0 0.0 0.00 0.00 0.00 81 1017.3
20260502054303 1 108 0.0 0.0 0.00 0.00 0.00 81 1016.9
20260502054156 1 108 0.0 0.0 0.00 0.00 0.00 81 1016.9
20260502054048 1 108 0.0 0.0 0.00 0.00 0.00 81 1017.3
20260502053943 1 108 0.0 0.0 0.00 0.00 0.00 81 1017.7
20260502053837 1 108 0.0 0.0 0.00 0.00 0.00 81 1017.3
20260502053732 1 108 0.0 0.0 0.00 0.00 0.00 81 1016.9
20260502053627 1 108 0.0 0.0 0.00 0.00 0.00 81 1017.3
20260502053521 1 108 0.0 0.0 0.00 0.00 0.00 81 1016.9
20260502053416 1 107 0.0 0.0 0.00 0.00 0.00 81 1017.3
20260502053309 2 107 0.0 0.0 0.00 0.00 0.00 81 1017.3
20260502053204 2 107 0.0 0.0 0.00 0.00 0.00 81 1017.3
20260502053058 2 107 0.0 0.0 0.00 0.00 0.00 81 1017.3
20260502052954 2 112 0.0 0.0 0.00 0.00 0.00 81 1017.3
20260502052847 1 114 0.0 0.0 0.00 0.00 0.00 81 1017.3
20260502052820 1 115 0.0 0.0 0.00 0.00 0.00 81 1016.9
20260502052742 1 115 0.0 0.0 0.00 0.00 0.00 81 1016.9
20260502052636 1 115 0.0 0.0 0.00 0.00 0.00 81 1016.9
20260502052530 1 116 0.0 0.0 0.00 0.00 0.00 81 1017.3
20260502052425 2 117 0.0 0.0 0.00 0.00 0.00 80 1017.3
20260502052319 2 117 0.0 0.0 0.00 0.00 0.00 80 1016.9
20260502052154 2 117 0.0 0.0 0.00 0.00 0.00 80 1017.3
20260502052048 2 117 0.0 0.0 0.00 0.00 0.00 80 1017.3
20260502051943 2 117 0.0 0.0 0.00 0.00 0.00 80 1017.3
20260502051837 2 117 0.0 0.0 0.00 0.00 0.00 81 1017.3
20260502051731 1 117 0.0 0.0 0.00 0.00 0.00 81 1017.3
20260502051625 2 115 0.0 0.0 0.00 0.00 0.00 81 1017.3
20260502051519 1 117 0.0 0.0 0.00 0.00 0.00 81 1017.3
20260502051413 1 116 0.0 0.0 0.00 0.00 0.00 81 1017.3
20260502051309 1 116 0.0 0.0 0.00 0.00 0.00 81 1017.3
20260502051241 1 116 0.0 0.0 0.00 0.00 0.00 81 1017.3
20260502051203 1 116 0.0 0.0 0.00 0.00 0.00 81 1017.3
20260502051056 2 116 0.0 0.0 0.00 0.00 0.00 81 1017.3
20260502050952 2 116 0.0 0.0 0.00 0.00 0.00 80 1016.9
20260502050845 2 115 0.0 0.0 0.00 0.00 0.00 80 1017.3
20260502050740 2 115 0.0 0.0 0.00 0.00 0.00 80 1016.9
20260502050633 2 116 0.0 0.0 0.00 0.00 0.00 80 1017.3
20260502050527 2 116 0.0 0.0 0.00 0.00 0.00 80 1016.9
20260502050433 2 116 0.0 0.0 0.00 0.00 0.00 80 1016.9
20260502050315 2 116 0.0 0.0 0.00 0.00 0.00 81 1017.3
20260502050226 2 115 0.0 0.0 0.00 0.00 0.00 80 1017.3
20260502050208 2 116 0.0 0.0 0.00 0.00 0.00 80 1017.3
20260502050104 2 116 0.0 0.0 0.00 0.00 0.00 80 1016.9
20260502045956 2 116 0.0 0.0 0.00 0.00 0.00 80 1016.9
20260502045851 2 116 0.0 0.0 0.00 0.00 0.00 80 1016.9
20260502045744 2 115 0.0 0.0 0.00 0.00 0.00 80 1017.3
20260502045718 2 116 0.0 0.0 0.00 0.00 0.00 81 1017.3
20260502045639 2 112 0.0 0.0 0.00 0.00 0.00 81 1017.3
20260502045533 2 112 0.0 0.0 0.00 0.00 0.00 81 1017.3
20260502045428 2 112 0.0 0.0 0.00 0.00 0.00 81 1016.9
20260502045321 2 110 0.0 0.0 0.00 0.00 0.00 81 1016.9
20260502045216 2 94 0.0 0.0 0.00 0.00 0.00 81 1016.9
20260502045111 2 90 0.0 0.0 0.00 0.00 0.00 81 1016.9
20260502045005 2 76 0.0 0.0 0.00 0.00 0.00 81 1016.9
20260502044858 2 71 0.0 0.0 0.00 0.00 0.00 81 1016.9
20260502044753 2 87 0.0 0.0 0.00 0.00 0.00 81 1016.9
20260502044705 2 87 0.0 0.0 0.00 0.00 0.00 81 1016.9
20260502044647 2 83 0.0 0.0 0.00 0.00 0.00 81 1016.9
20260502044542 2 40 0.0 0.0 0.00 0.00 0.00 81 1016.9
20260502044437 2 23 0.0 0.0 0.00 0.00 0.00 81 1016.9
20260502044332 2 11 0.0 0.0 0.00 0.00 0.00 81 1016.9
20260502044225 2 27 0.0 0.0 0.00 0.00 0.00 81 1016.9
20260502044159 2 14 0.0 0.0 0.00 0.00 0.00 81 1016.9
20260502044119 2 53 0.0 0.0 0.00 0.00 0.00 81 1016.9
20260502044014 2 51 0.0 0.0 0.00 0.00 0.00 81 1016.9
20260502043908 2 41 0.0 0.0 0.00 0.00 0.00 81 1016.9
20260502043802 2 21 0.0 0.0 0.00 0.00 0.00 81 1016.9
20260502043656 2 41 0.0 0.0 0.00 0.00 0.00 81 1016.9
20260502043552 2 66 0.0 0.0 0.00 0.00 0.00 81 1016.9
20260502043445 2 65 0.0 0.0 0.00 0.00 0.00 81 1016.9
20260502043340 2 64 0.0 0.0 0.00 0.00 0.00 81 1016.9
20260502043235 2 86 0.0 0.0 0.00 0.00 0.00 81 1016.9
20260502043129 2 81 0.0 0.0 0.00 0.00 0.00 81 1016.9
20260502043023 2 64 0.0 0.0 0.00 0.00 0.00 81 1016.9
20260502042917 2 63 0.0 0.0 0.00 0.00 0.00 81 1016.9
20260502042812 2 55 0.0 0.0 0.00 0.00 0.00 81 1016.9
20260502042706 2 52 0.0 0.0 0.00 0.00 0.00 81 1016.9
20260502042640 2 51 0.0 0.0 0.00 0.00 0.00 81 1016.9
20260502042600 2 41 0.0 0.0 0.00 0.00 0.00 81 1016.9
20260502042454 2 59 0.0 0.0 0.00 0.00 0.00 81 1016.9
20260502042349 2 57 0.0 0.0 0.00 0.00 0.00 81 1016.9
20260502042244 2 54 0.0 0.0 0.00 0.00 0.00 81 1016.9
20260502042138 2 47 0.0 0.0 0.00 0.00 0.00 81 1016.6
20260502042032 2 32 0.0 0.0 0.00 0.00 0.00 81 1016.9
20260502041927 2 64 0.0 0.0 0.00 0.00 0.00 81 1016.9
20260502041821 2 62 0.0 0.0 0.00 0.00 0.00 81 1016.9
20260502041715 2 45 0.0 0.0 0.00 0.00 0.00 81 1016.9
20260502041627 2 73 0.0 0.0 0.00 0.00 0.00 81 1016.9
20260502041611 2 65 0.0 0.0 0.00 0.00 0.00 81 1016.9
20260502041504 2 61 0.0 0.0 0.00 0.00 0.00 81 1016.9
20260502041359 2 62 0.0 0.0 0.00 0.00 0.00 81 1016.9
20260502041253 2 62 0.0 0.0 0.00 0.00 0.00 81 1016.9
20260502041147 2 62 0.0 0.0 0.00 0.00 0.00 81 1016.9
20260502041121 2 61 0.0 0.0 0.00 0.00 0.00 81 1016.9
20260502041042 2 60 0.0 0.0 0.00 0.00 0.00 81 1016.9
20260502040949 2 66 0.0 0.0 0.00 0.00 0.00 81 1016.6
20260502040830 2 60 0.0 0.0 0.00 0.00 0.00 81 1016.9
20260502040725 2 62 0.0 0.0 0.00 0.00 0.00 80 1016.9
20260502040618 2 60 0.0 0.0 0.00 0.00 0.00 80 1016.6
20260502040514 2 58 0.0 0.0 0.00 0.00 0.00 80 1016.9
20260502040407 2 57 0.0 0.0 0.00 0.00 0.00 80 1016.9
20260502040302 2 56 0.0 0.0 0.00 0.00 0.00 80 1016.9
20260502040156 2 77 0.0 0.0 0.00 0.00 0.00 80 1016.6
20260502040109 2 76 0.0 0.0 0.00 0.00 0.00 80 1016.6
20260502035945 2 82 0.0 0.0 0.00 0.00 0.00 80 1016.9
20260502035839 2 87 0.0 0.0 0.00 0.00 0.00 80 1016.6
20260502035734 2 86 0.0 0.0 0.00 0.00 0.00 80 1016.6
20260502035628 2 78 0.0 0.0 0.00 0.00 0.00 80 1016.9
20260502035602 2 13 0.0 0.0 0.00 0.00 0.00 80 1016.9
20260502035522 2 12 0.0 0.0 0.00 0.00 0.00 80 1016.9
20260502035417 2 37 0.0 0.0 0.00 0.00 0.00 80 1016.6
20260502035311 2 99 0.0 0.0 0.00 0.00 0.00 80 1016.6
20260502035205 2 99 0.0 0.0 0.00 0.00 0.00 79 1016.6
20260502035059 2 100 0.0 0.0 0.00 0.00 0.00 79 1016.6
20260502034953 2 97 0.0 0.0 0.00 0.00 0.00 79 1016.6
20260502034848 2 97 0.0 1.6 0.00 0.00 0.00 79 1016.6
20260502034742 2 100 0.0 3.2 0.00 0.00 0.00 79 1016.6
20260502034636 2 83 0.0 3.2 0.00 0.00 0.00 80 1016.6
20260502034549 2 47 0.0 3.2 0.00 0.00 0.00 79 1016.9
20260502034531 2 44 0.0 3.2 0.00 0.00 0.00 79 1016.6
20260502034426 2 45 0.0 3.2 0.00 0.00 0.00 79 1016.6
20260502034320 2 33 0.0 3.2 0.00 0.00 0.00 79 1016.9
20260502034217 2 72 0.0 3.2 0.00 0.00 0.00 79 1016.6
20260502034108 2 131 0.0 3.2 0.00 0.00 0.00 78 1016.9
20260502034042 2 131 0.0 3.2 0.00 0.00 0.00 78 1016.9
20260502034004 2 143 1.6 3.2 0.00 0.00 0.00 79 1016.6
20260502033857 2 114 1.6 3.2 0.00 0.00 0.00 78 1016.6
20260502033811 2 104 1.6 3.2 0.00 0.00 0.00 79 1016.6
20260502033802 2 94 0.0 3.2 0.00 0.00 0.00 79 1016.6
20260502033752 2 92 0.0 3.2 0.00 0.00 0.00 78 1016.6
20260502033433 2 95 1.6 3.2 0.00 0.00 0.00 78 1016.3
20260502033327 2 72 1.6 1.6 0.00 0.00 0.00 79 1016.6
20260502033258 2 142 1.6 1.6 0.00 0.00 0.00 79 1016.6
20260502033254 2 119 0.0 1.6 0.00 0.00 0.00 79 1016.6
20260502033246 2 140 0.0 1.6 0.00 0.00 0.00 78 1016.6
20260502033010 2 134 1.6 1.6 0.00 0.00 0.00 79 1016.6
20260502032905 2 122 0.0 0.0 0.00 0.00 0.00 79 1016.3
20260502032801 2 123 0.0 0.0 0.00 0.00 0.00 79 1016.6
20260502032747 2 122 0.0 3.2 0.00 0.00 0.00 78 1016.3
20260502032739 2 122 0.0 3.2 0.00 0.00 0.00 78 1016.6
20260502032442 2 122 0.0 3.2 0.00 0.00 0.00 78 1016.6
20260502032336 2 122 0.0 3.2 0.00 0.00 0.00 78 1016.6
20260502032249 2 130 0.0 3.2 0.00 0.00 0.00 78 1016.6
20260502032241 2 134 0.0 3.2 0.00 0.00 0.00 78 1016.3
20260502032231 2 139 0.0 3.2 0.00 0.00 0.00 78 1016.3
20260502031914 2 139 0.0 3.2 0.00 0.00 0.00 78 1016.3
20260502031809 2 143 1.6 3.2 0.00 0.00 0.00 78 1016.6
20260502031743 2 108 0.0 1.6 0.00 0.00 0.00 78 1016.3
20260502031738 2 118 3.2 3.2 0.00 0.00 0.00 78 1016.6
20260502031730 2 120 1.6 3.2 0.00 0.00 0.00 78 1016.6
20260502031451 2 99 0.0 1.6 0.00 0.00 0.00 78 1016.3
20260502031346 2 91 0.0 1.6 0.00 0.00 0.00 78 1016.6
20260502031241 2 100 0.0 0.0 0.00 0.00 0.00 78 1016.6
20260502031134 2 95 0.0 0.0 0.00 0.00 0.00 78 1016.6
20260502031042 2 95 0.0 0.0 0.00 0.00 0.00 79 1016.6
20260502031002 2 95 0.0 1.6 0.00 0.00 0.00 79 1016.6
20260502030923 2 95 0.0 1.6 0.00 0.00 0.00 78 1016.6
20260502030818 2 95 0.0 1.6 0.00 0.00 0.00 78 1016.6
20260502030712 2 86 0.0 1.6 0.00 0.00 0.00 79 1016.6
20260502030606 2 86 0.0 1.6 0.00 0.00 0.00 79 1016.6
20260502030513 2 97 0.0 1.6 0.00 0.00 0.00 79 1016.6
20260502030355 2 92 0.0 1.6 0.00 0.00 0.00 78 1016.6
20260502030250 2 80 0.0 1.6 0.00 0.00 0.00 79 1016.6
20260502030144 2 78 0.0 1.6 0.00 0.00 0.00 78 1016.6
20260502030038 2 78 0.0 1.6 0.00 0.00 0.00 78 1016.6
20260502025950 2 83 0.0 1.6 0.00 0.00 0.00 78 1016.3
20260502025933 2 95 0.0 1.6 0.00 0.00 0.00 78 1016.3
20260502025827 2 97 0.0 1.6 0.00 0.00 0.00 78 1016.6
20260502025722 2 99 0.0 1.6 0.00 0.00 0.00 79 1016.6
20260502025616 2 96 0.0 1.6 0.00 0.00 0.00 79 1016.6
20260502025510 2 97 0.0 1.6 0.00 0.00 0.00 78 1016.6
20260502025444 2 99 0.0 1.6 0.00 0.00 0.00 78 1016.6
20260502025405 2 99 0.0 1.6 0.00 0.00 0.00 78 1016.6
20260502025259 2 92 0.0 1.6 0.00 0.00 0.00 78 1016.9
20260502025153 2 98 0.0 1.6 0.00 0.00 0.00 78 1016.3
20260502025048 2 67 0.0 1.6 0.00 0.00 0.00 78 1016.9
20260502024941 2 56 0.0 1.6 0.00 0.00 0.00 78 1016.6
20260502024836 2 54 0.0 1.6 0.00 0.00 0.00 77 1016.6
20260502024731 2 47 0.0 1.6 0.00 0.00 0.00 77 1016.6
20260502024625 2 88 1.6 1.6 0.00 0.00 0.00 78 1016.6
20260502024519 2 67 0.0 3.2 0.00 0.00 0.00 78 1016.9
20260502024430 2 82 0.0 3.2 0.00 0.00 0.00 77 1016.9
20260502024413 2 82 0.0 3.2 0.00 0.00 0.00 77 1016.6
20260502024307 2 83 0.0 4.8 0.00 0.00 0.00 77 1016.9
20260502024202 2 83 0.0 4.8 0.00 0.00 0.00 77 1016.6
20260502024057 2 78 0.0 4.8 0.00 0.00 0.00 77 1016.6
20260502023951 2 82 0.0 4.8 0.00 0.00 0.00 77 1016.6
20260502023925 2 81 0.0 4.8 0.00 0.00 0.00 77 1016.6
20260502023846 2 69 0.0 4.8 0.00 0.00 0.00 77 1016.6
20260502023740 2 60 0.0 4.8 0.00 0.00 0.00 77 1016.6
20260502023634 2 67 0.0 4.8 0.00 0.00 0.00 77 1016.6
20260502023528 2 42 3.2 4.8 0.00 0.00 0.00 77 1016.6
20260502023422 2 70 1.6 4.8 0.00 0.00 0.00 77 1016.6
20260502023317 2 40 0.0 4.8 0.00 0.00 0.00 77 1016.6
20260502023210 2 40 0.0 4.8 0.00 0.00 0.00 77 1016.6
20260502023105 2 45 0.0 4.8 0.00 0.00 0.00 77 1016.6
20260502023000 3 56 3.2 4.8 0.00 0.00 0.00 77 1016.6
20260502022911 3 9 0.0 4.8 0.00 0.00 0.00 77 1016.6
20260502022854 3 40 1.6 4.8 0.00 0.00 0.00 77 1016.6
20260502022748 3 63 3.2 4.8 0.00 0.00 0.00 76 1016.6
20260502022643 3 24 1.6 4.8 0.00 0.00 0.00 76 1016.6
20260502022535 3 54 3.2 4.8 0.00 0.00 0.00 76 1016.6
20260502022429 3 38 3.2 4.8 0.00 0.00 0.00 76 1016.6
20260502022402 3 43 1.6 4.8 0.00 0.00 0.00 76 1016.6
20260502022323 3 57 0.0 4.8 0.00 0.00 0.00 76 1016.6
20260502022218 3 22 1.6 4.8 0.00 0.00 0.00 75 1016.6
20260502022113 3 55 1.6 6.4 0.00 0.00 0.00 75 1016.6
20260502022005 3 44 1.6 6.4 0.00 0.00 0.00 75 1016.6
20260502021859 3 51 3.2 6.4 0.00 0.00 0.00 75 1016.6
20260502021754 3 32 0.0 6.4 0.00 0.00 0.00 75 1016.9
20260502021648 3 52 0.0 6.4 0.00 0.00 0.00 75 1016.6
20260502021542 3 41 1.6 6.4 0.00 0.00 0.00 75 1016.6
20260502021436 3 67 1.6 6.4 0.00 0.00 0.00 74 1016.3
20260502021347 3 46 1.6 6.4 0.00 0.00 0.00 74 1016.3
20260502021330 3 46 1.6 6.4 0.00 0.00 0.00 74 1016.6
20260502021224 3 77 3.2 6.4 0.00 0.00 0.00 74 1016.6
20260502021120 3 68 1.6 6.4 0.00 0.00 0.00 74 1016.6
20260502021014 3 39 3.2 6.4 0.00 0.00 0.00 74 1016.6
20260502020908 3 61 3.2 6.4 0.00 0.00 0.00 73 1016.6
20260502020842 3 61 3.2 6.4 0.00 0.00 0.00 73 1016.6
20260502020803 3 24 4.8 6.4 0.00 0.00 0.00 74 1016.3
20260502020657 3 80 0.0 4.8 0.00 0.00 0.00 74 1016.3
20260502020552 3 61 0.0 4.8 0.00 0.00 0.00 73 1016.6
20260502020446 3 42 1.6 6.4 0.00 0.00 0.00 73 1016.6
20260502020340 3 55 0.0 6.4 0.00 0.00 0.00 72 1016.3
20260502020234 3 40 0.0 6.4 0.00 0.00 0.00 72 1016.3
20260502020130 3 61 0.0 6.4 0.00 0.00 0.00 72 1016.3
20260502020024 3 33 3.2 6.4 0.00 0.00 0.00 71 1016.3
20260502015916 3 65 1.6 6.4 0.00 0.00 0.00 71 1016.3
20260502015828 3 73 1.6 6.4 0.00 0.00 0.00 71 1016.3
20260502015810 3 78 3.2 6.4 0.00 0.00 0.00 71 1016.3
20260502015706 3 59 1.6 6.4 0.00 0.00 0.00 71 1016.3
20260502015559 3 78 0.0 6.4 0.00 0.00 0.00 71 1016.3
20260502015454 3 13 0.0 4.8 0.00 0.00 0.00 71 1016.3
20260502015348 3 41 1.6 4.8 0.00 0.00 0.00 71 1015.9
20260502015322 3 43 1.6 4.8 0.00 0.00 0.00 71 1016.3
20260502015243 3 51 3.2 4.8 0.00 0.00 0.00 71 1016.3
20260502015137 3 59 3.2 4.8 0.00 0.00 0.00 70 1016.3
20260502015032 3 29 3.2 4.8 0.00 0.00 0.00 70 1015.9
20260502014926 3 86 0.0 4.8 0.00 0.00 0.00 71 1015.9
20260502014820 3 66 1.6 4.8 0.00 0.00 0.00 70 1015.9
20260502014714 3 87 0.0 4.8 0.00 0.00 0.00 70 1015.9
20260502014622 3 98 1.6 4.8 0.00 0.00 0.00 70 1015.9
20260502014503 3 73 0.0 4.8 0.00 0.00 0.00 70 1015.9
20260502014357 3 75 0.0 4.8 0.00 0.00 0.00 70 1015.9
20260502014309 3 53 0.0 4.8 0.00 0.00 0.00 69 1015.9
20260502014252 3 37 0.0 4.8 0.00 0.00 0.00 69 1015.9
20260502014146 3 35 3.2 4.8 0.00 0.00 0.00 69 1015.6
20260502014040 4 68 0.0 3.2 0.00 0.00 0.00 71 1015.9
20260502013934 4 88 0.0 4.8 0.00 0.00 0.00 70 1015.9
20260502013829 4 96 0.0 4.8 0.00 0.00 0.00 70 1015.9
20260502013802 4 82 0.0 4.8 0.00 0.00 0.00 71 1015.9
20260502013722 4 93 0.0 4.8 0.00 0.00 0.00 70 1015.6
20260502013630 4 73 0.0 4.8 0.00 0.00 0.00 70 1015.6
20260502013511 4 65 0.0 4.8 0.00 0.00 0.00 70 1015.6
20260502013404 3 57 0.0 4.8 0.00 0.00 0.00 70 1015.6
20260502013259 3 65 0.0 4.8 0.00 0.00 0.00 70 1015.6
20260502013154 4 41 1.6 4.8 0.00 0.00 0.00 69 1015.6
20260502013048 4 56 0.0 4.8 0.00 0.00 0.00 69 1015.3
20260502012942 4 92 1.6 4.8 0.00 0.00 0.00 69 1015.6
20260502012837 4 40 3.2 4.8 0.00 0.00 0.00 69 1015.6
20260502012748 4 67 1.6 4.8 0.00 0.00 0.00 69 1015.6
20260502012730 4 48 1.6 4.8 0.00 0.00 0.00 69 1015.3
20260502012625 4 81 1.6 4.8 0.00 0.00 0.00 69 1015.6
20260502012519 4 30 1.6 4.8 0.00 0.00 0.00 69 1015.6
20260502012414 4 80 1.6 4.8 0.00 0.00 0.00 69 1015.6
20260502012309 4 98 0.0 3.2 0.00 0.00 0.00 69 1015.6
20260502012242 4 74 0.0 3.2 0.00 0.00 0.00 69 1015.6
20260502012203 4 69 0.0 3.2 0.00 0.00 0.00 69 1015.6
20260502012057 4 79 0.0 3.2 0.00 0.00 0.00 70 1015.6
20260502011952 4 61 0.0 3.2 0.00 0.00 0.00 70 1015.3
20260502011847 4 42 0.0 3.2 0.00 0.00 0.00 70 1015.6
20260502011740 4 46 0.0 3.2 0.00 0.00 0.00 69 1015.3
20260502011634 4 53 0.0 3.2 0.00 0.00 0.00 69 1015.6
20260502011529 4 63 0.0 3.2 0.00 0.00 0.00 69 1015.3
20260502011422 5 67 0.0 3.2 0.00 0.00 0.00 69 1015.6
20260502011316 5 76 0.0 3.2 0.00 0.00 0.00 70 1015.3
20260502011228 5 97 0.0 3.2 0.00 0.00 0.00 69 1015.3
20260502011211 5 84 0.0 3.2 0.00 0.00 0.00 69 1015.3
20260502011105 5 36 0.0 1.6 0.00 0.00 0.00 69 1015.3
20260502010958 5 26 0.0 1.6 0.00 0.00 0.00 70 1015.3
20260502010854 5 24 0.0 1.6 0.00 0.00 0.00 68 1015.6
20260502010747 5 37 0.0 1.6 0.00 0.00 0.00 68 1015.3
20260502010721 5 38 0.0 1.6 0.00 0.00 0.00 68 1015.6
20260502010642 5 37 1.6 1.6 0.00 0.00 0.00 68 1015.6
20260502010536 5 55 0.0 1.6 0.00 0.00 0.00 69 1015.3
20260502010431 5 44 0.0 4.8 0.00 0.00 0.00 69 1015.3
20260502010325 5 80 0.0 4.8 0.00 0.00 0.00 69 1015.3
20260502010220 5 67 0.0 4.8 0.00 0.00 0.00 69 1015.3
20260502010114 5 66 0.0 4.8 0.00 0.00 0.00 69 1015.6
20260502010008 5 45 0.0 4.8 0.00 0.00 0.00 69 1015.3
20260502005903 5 44 0.0 4.8 0.00 0.00 0.00 68 1015.3
20260502005757 5 39 0.0 4.8 0.00 0.00 0.00 68 1015.3
20260502005733 6 349 0.0 4.8 0.00 0.00 0.00 67 1015.3
20260502005729 6 330 3.2 9.7 0.00 0.00 0.00 67 1015.3
20260502005723 5 39 0.0 4.8 0.00 0.00 0.00 68 1015.3
20260502005719 5 39 0.0 4.8 0.00 0.00 0.00 67 1015.3
20260502005710 5 44 0.0 4.8 0.00 0.00 0.00 67 1015.3
20260502005449 5 348 0.0 3.2 0.00 0.00 0.00 67 1015.3
20260502005445 5 3 3.2 4.8 0.00 0.00 0.00 67 1015.3
20260502005437 5 6 0.0 3.2 0.00 0.00 0.00 67 1015.3
20260502005428 5 9 0.0 3.2 0.00 0.00 0.00 67 1015.3
20260502005206 5 350 0.0 6.4 0.00 0.00 0.00 67 1014.9
20260502005158 5 27 1.6 6.4 0.00 0.00 0.00 68 1015.3
20260502004934 5 356 1.6 6.4 0.00 0.00 0.00 68 1015.3
20260502004925 5 2 0.0 6.4 0.00 0.00 0.00 68 1015.3
20260502004915 5 359 0.0 6.4 0.00 0.00 0.00 67 1015.3
20260502004654 6 341 1.6 6.4 0.00 0.00 0.00 68 1015.3
20260502004646 6 353 0.0 6.4 0.00 0.00 0.00 68 1015.3
20260502004426 6 65 1.6 6.4 0.00 0.00 0.00 67 1015.3
20260502004422 5 0 0.0 6.4 0.00 0.00 0.00 67 1015.3
20260502004414 6 349 3.2 9.7 0.00 0.00 0.00 67 1015.3
20260502004152 6 338 0.0 9.7 0.00 0.00 0.00 68 1015.3
20260502004143 6 330 0.0 9.7 0.00 0.00 0.00 67 1014.9
20260502003922 6 337 0.0 9.7 0.00 0.00 0.00 68 1015.3
20260502003914 6 345 0.0 9.7 0.00 0.00 0.00 67 1015.3
20260502003905 6 331 1.6 9.7 0.00 0.00 0.00 67 1015.3
20260502003644 6 332 0.0 9.7 0.00 0.00 0.00 67 1015.3
20260502003640 6 337 3.2 9.7 0.00 0.00 0.00 67 1015.3
20260502003631 6 325 3.2 9.7 0.00 0.00 0.00 67 1015.3
20260502003412 6 342 4.8 9.7 0.00 0.00 0.00 66 1015.3
20260502003403 6 62 1.6 3.2 0.00 0.00 0.00 67 1014.9
20260502003353 6 349 0.0 4.8 0.00 0.00 0.00 67 1015.3
20260502003132 6 310 0.0 6.4 0.00 0.00 0.00 67 1014.9
20260502003124 6 326 0.0 6.4 0.00 0.00 0.00 67 1015.3
20260502002905 6 342 4.8 6.4 0.00 0.00 0.00 67 1015.3
20260502002901 6 325 1.6 6.4 0.00 0.00 0.00 67 1014.9
20260502002852 6 1 0.0 6.4 0.00 0.00 0.00 67 1015.3
20260502002630 6 1 1.6 6.4 0.00 0.00 0.00 67 1015.3
20260502002622 6 324 0.0 6.4 0.00 0.00 0.00 67 1014.9
20260502002402 6 331 3.2 6.4 0.00 0.00 0.00 67 1015.3
20260502002353 6 335 1.6 6.4 0.00 0.00 0.00 67 1015.3
20260502002345 6 339 4.8 6.4 0.00 0.00 0.00 67 1015.3
20260502002044 6 311 0.0 6.4 0.00 0.00 0.00 67 1015.3
20260502001939 6 306 0.0 6.4 0.00 0.00 0.00 67 1015.3
20260502001855 6 309 0.0 6.4 0.00 0.00 0.00 66 1014.9
20260502001847 6 300 0.0 6.4 0.00 0.00 0.00 66 1014.9
20260502001837 6 45 3.2 6.4 0.00 0.00 0.00 66 1014.9
20260502001517 6 309 3.2 6.4 0.00 0.00 0.00 67 1015.3
20260502001411 6 352 0.0 6.4 0.00 0.00 0.00 67 1015.3
20260502001305 6 308 0.0 6.4 0.00 0.00 0.00 66 1015.3
20260502001159 6 319 0.0 9.7 0.00 0.00 0.00 66 1015.3
20260502001109 6 326 1.6 9.7 0.00 0.00 0.00 66 1015.3
20260502001105 6 328 1.6 9.7 0.00 0.00 0.00 66 1015.3
20260502000947 6 324 1.6 9.7 0.00 0.00 0.00 66 1014.9
20260502000841 6 327 3.2 9.7 0.00 0.00 0.00 66 1014.9
20260502000735 6 310 0.0 9.7 0.00 0.00 0.00 66 1014.9
20260502000629 6 9 1.6 9.7 0.00 0.00 0.00 66 1014.9
20260502000602 6 31 4.8 9.7 0.00 0.00 0.00 65 1014.9
20260502000524 6 344 6.4 9.7 0.00 0.00 0.00 66 1014.9
20260502000418 6 1 0.0 9.7 0.00 0.00 0.00 66 1014.9
20260502000325 6 29 1.6 9.7 0.00 0.00 0.00 66 1014.9
20260502000207 6 305 3.2 6.4 0.00 0.00 0.00 66 1014.9
20260502000101 6 308 1.6 6.4 0.00 0.00 0.00 65 1014.9
20260501235955 6 304 3.2 12.9 0.00 0.00 0.00 66 1014.9
20260501235849 6 304 0.0 12.9 0.00 0.00 0.00 66 1014.9
20260501235743 6 336 0.0 12.9 0.00 0.00 0.00 66 1014.9
20260501235637 6 0 0.0 12.9 0.00 0.00 0.00 66 1014.9
20260501235549 6 320 1.6 12.9 0.00 0.00 0.00 66 1014.9
20260501235532 6 336 3.2 12.9 0.00 0.00 0.00 66 1014.9
20260501235426 6 27 0.0 12.9 0.00 0.00 0.00 65 1014.9
20260501235321 6 326 3.2 12.9 0.00 0.00 0.00 66 1014.9
20260501235215 6 324 3.2 12.9 0.00 0.00 0.00 66 1014.6
20260501235109 6 339 4.8 12.9 0.00 0.00 0.00 65 1014.9
20260501235043 6 329 11.3 12.9 0.00 0.00 0.00 65 1014.9
20260501235004 6 328 1.6 6.4 0.00 0.00 0.00 65 1014.6
20260501234858 6 341 3.2 6.4 0.00 0.00 0.00 65 1014.9
20260501234752 6 332 4.8 6.4 0.00 0.00 0.00 65 1014.9
20260501234646 6 339 3.2 4.8 0.00 0.00 0.00 66 1014.9
20260501234540 6 319 1.6 4.8 0.00 0.00 0.00 66 1014.6
20260501234434 6 322 0.0 4.8 0.00 0.00 0.00 65 1014.9
20260501234330 6 320 1.6 4.8 0.00 0.00 0.00 65 1014.9
20260501234223 6 324 1.6 4.8 0.00 0.00 0.00 65 1014.9
20260501234117 6 337 1.6 4.8 0.00 0.00 0.00 65 1014.9
20260501234030 6 322 0.0 4.8 0.00 0.00 0.00 65 1014.9
20260501234012 6 318 0.0 4.8 0.00 0.00 0.00 65 1014.6
20260501233907 6 320 4.8 6.4 0.00 0.00 0.00 65 1014.9
20260501233801 6 358 1.6 6.4 0.00 0.00 0.00 66 1014.6
20260501233655 6 45 0.0 6.4 0.00 0.00 0.00 65 1014.9
20260501233520 6 46 0.0 6.4 0.00 0.00 0.00 65 1014.9
20260501233441 6 21 0.0 6.4 0.00 0.00 0.00 65 1014.9
20260501233337 6 1 0.0 6.4 0.00 0.00 0.00 65 1014.6
20260501233231 6 3 0.0 6.4 0.00 0.00 0.00 65 1014.9
20260501233125 6 334 4.8 6.4 0.00 0.00 0.00 64 1014.6
20260501233019 6 21 0.0 6.4 0.00 0.00 0.00 64 1014.6
20260501232913 6 15 3.2 6.4 0.00 0.00 0.00 65 1014.6
20260501232807 6 17 0.0 6.4 0.00 0.00 0.00 66 1014.9
20260501232702 6 1 1.6 4.8 0.00 0.00 0.00 65 1014.6
20260501232557 6 46 1.6 4.8 0.00 0.00 0.00 65 1014.9
20260501232508 6 34 1.6 4.8 0.00 0.00 0.00 65 1014.9
20260501232451 6 355 1.6 4.8 0.00 0.00 0.00 65 1014.9
20260501232346 6 331 1.6 4.8 0.00 0.00 0.00 65 1014.9
20260501232240 6 311 0.0 4.8 0.00 0.00 0.00 65 1014.9
20260501232134 6 282 0.0 9.7 0.00 0.00 0.00 65 1014.6
20260501232029 6 293 0.0 9.7 0.00 0.00 0.00 64 1014.6
20260501232003 6 315 0.0 11.3 0.00 0.00 0.00 64 1014.6
20260501231924 6 338 1.6 11.3 0.00 0.00 0.00 64 1014.6
20260501231818 6 322 0.0 11.3 0.00 0.00 0.00 64 1014.6
20260501231712 6 295 3.2 11.3 0.00 0.00 0.00 64 1014.9
20260501231608 6 317 3.2 11.3 0.00 0.00 0.00 64 1014.6
20260501231501 6 317 3.2 11.3 0.00 0.00 0.00 63 1014.9
20260501231356 6 337 4.8 11.3 0.00 0.00 0.00 63 1014.9
20260501231251 6 274 0.0 11.3 0.00 0.00 0.00 63 1014.9
20260501231145 6 317 1.6 11.3 0.00 0.00 0.00 63 1014.6
20260501231040 6 349 6.4 11.3 0.00 0.00 0.00 63 1014.6
20260501230952 6 311 3.2 9.7 0.00 0.00 0.00 63 1014.9
20260501230934 6 344 0.0 9.7 0.00 0.00 0.00 63 1014.9
20260501230829 6 314 1.6 9.7 0.00 0.00 0.00 62 1014.9
20260501230723 6 262 3.2 9.7 0.00 0.00 0.00 62 1014.6
20260501230617 6 307 4.8 9.7 0.00 0.00 0.00 62 1014.6
20260501230513 6 321 0.0 9.7 0.00 0.00 0.00 62 1014.6
20260501230446 6 335 0.0 9.7 0.00 0.00 0.00 62 1014.6
20260501230407 6 333 3.2 9.7 0.00 0.00 0.00 62 1014.6
20260501230301 6 301 0.0 9.7 0.00 0.00 0.00 62 1014.9
20260501230209 6 318 0.0 9.7 0.00 0.00 0.00 62 1014.6
20260501230100 6 315 6.4 9.7 0.00 0.00 0.00 61 1014.6
20260501225944 6 324 3.2 9.7 0.00 0.00 0.00 62 1014.2
20260501225839 6 339 1.6 9.7 0.00 0.00 0.00 62 1014.6
20260501225746 7 357 3.2 9.7 0.00 0.00 0.00 62 1014.6
20260501225628 7 322 0.0 9.7 0.00 0.00 0.00 61 1014.6
20260501225522 7 337 3.2 9.7 0.00 0.00 0.00 61 1014.6
20260501225434 7 325 3.2 9.7 0.00 0.00 0.00 61 1014.6
20260501225416 7 315 6.4 9.7 0.00 0.00 0.00 61 1014.9
20260501225310 7 339 3.2 6.4 0.00 0.00 0.00 62 1014.9
20260501225204 7 323 0.0 6.4 0.00 0.00 0.00 62 1014.6
20260501225100 7 334 0.0 6.4 0.00 0.00 0.00 61 1014.6
20260501224953 7 307 1.6 6.4 0.00 0.00 0.00 61 1014.6
20260501224926 7 325 1.6 6.4 0.00 0.00 0.00 61 1014.6
20260501224848 7 344 3.2 6.4 0.00 0.00 0.00 60 1014.6
20260501224742 7 349 4.8 6.4 0.00 0.00 0.00 61 1014.6
20260501224636 7 335 1.6 9.7 0.00 0.00 0.00 60 1014.6
20260501224531 7 19 1.6 9.7 0.00 0.00 0.00 60 1014.6
20260501224424 7 332 3.2 9.7 0.00 0.00 0.00 61 1014.6
20260501224319 7 328 0.0 9.7 0.00 0.00 0.00 61 1014.6
20260501224213 7 323 0.0 9.7 0.00 0.00 0.00 60 1014.2
20260501224107 7 337 0.0 9.7 0.00 0.00 0.00 60 1014.6
20260501224002 7 326 1.6 9.7 0.00 0.00 0.00 60 1014.2
20260501223913 7 19 3.2 9.7 0.00 0.00 0.00 60 1014.2
20260501223856 7 324 6.4 9.7 0.00 0.00 0.00 60 1014.2
20260501223751 7 49 3.2 9.7 0.00 0.00 0.00 59 1014.6
20260501223645 7 28 1.6 9.7 0.00 0.00 0.00 60 1014.6
20260501223539 7 29 3.2 9.7 0.00 0.00 0.00 59 1014.6
20260501223433 7 350 3.2 9.7 0.00 0.00 0.00 60 1014.6
20260501223406 7 2 0.0 9.7 0.00 0.00 0.00 60 1014.6
20260501223327 7 354 3.2 9.7 0.00 0.00 0.00 60 1014.6
20260501223222 7 331 4.8 9.7 0.00 0.00 0.00 60 1014.6
20260501223116 7 338 4.8 9.7 0.00 0.00 0.00 59 1014.6
20260501223011 7 73 6.4 9.7 0.00 0.00 0.00 59 1014.6
20260501222904 7 346 8.0 9.7 0.00 0.00 0.00 59 1014.6
20260501222759 7 57 0.0 6.4 0.00 0.00 0.00 60 1014.6
20260501222653 7 32 1.6 4.8 0.00 0.00 0.00 61 1014.6
20260501222548 7 332 0.0 6.4 0.00 0.00 0.00 61 1014.6
20260501222443 7 351 1.6 6.4 0.00 0.00 0.00 60 1014.6
20260501222354 7 335 1.6 6.4 0.00 0.00 0.00 60 1014.6
20260501222337 7 330 3.2 6.4 0.00 0.00 0.00 60 1014.6
20260501222231 7 343 1.6 9.7 0.00 0.00 0.00 59 1014.6
20260501222126 7 6 1.6 9.7 0.00 0.00 0.00 59 1014.6
20260501222021 7 339 3.2 9.7 0.00 0.00 0.00 59 1014.6
20260501221914 7 343 3.2 11.3 0.00 0.00 0.00 60 1014.6
20260501221847 7 349 1.6 11.3 0.00 0.00 0.00 60 1014.6
20260501221809 7 1 0.0 11.3 0.00 0.00 0.00 59 1014.2
20260501221703 7 351 1.6 11.3 0.00 0.00 0.00 59 1014.2
20260501221557 7 339 3.2 11.3 0.00 0.00 0.00 58 1014.2
20260501221449 7 43 3.2 11.3 0.00 0.00 0.00 58 1014.6
20260501221344 7 78 3.2 11.3 0.00 0.00 0.00 58 1014.6
20260501221238 7 39 3.2 11.3 0.00 0.00 0.00 59 1014.6
20260501221132 7 39 1.6 11.3 0.00 0.00 0.00 60 1014.2
20260501221027 7 340 3.2 11.3 0.00 0.00 0.00 59 1014.6
20260501220921 7 341 4.8 11.3 0.00 0.00 0.00 60 1014.6
20260501220833 7 273 3.2 11.3 0.00 0.00 0.00 59 1014.6
20260501220816 7 328 6.4 11.3 0.00 0.00 0.00 60 1014.6
20260501220710 7 34 1.6 11.3 0.00 0.00 0.00 60 1014.6
20260501220604 7 332 3.2 11.3 0.00 0.00 0.00 59 1014.2
20260501220457 7 319 4.8 11.3 0.00 0.00 0.00 58 1014.2
20260501220352 7 332 6.4 11.3 0.00 0.00 0.00 59 1014.6
20260501220326 7 348 1.6 11.3 0.00 0.00 0.00 59 1014.2
20260501220317 7 43 4.8 11.3 0.00 0.00 0.00 57 1014.2
20260501220246 7 334 3.2 11.3 0.00 0.00 0.00 59 1014.2
20260501220141 7 4 4.8 11.3 0.00 0.00 0.00 59 1014.2
20260501220035 7 322 3.2 11.3 0.00 0.00 0.00 59 1014.2
20260501215930 7 327 3.2 11.3 0.00 0.00 0.00 58 1014.2
20260501215829 7 43 4.8 11.3 0.00 0.00 0.00 57 1014.2
20260501215719 7 88 3.2 11.3 0.00 0.00 0.00 58 1014.2
20260501215613 7 336 3.2 11.3 0.00 0.00 0.00 59 1014.6
20260501215507 7 326 4.8 11.3 0.00 0.00 0.00 58 1014.2
20260501215401 7 341 8.0 11.3 0.00 0.00 0.00 57 1014.2
20260501215313 7 309 6.4 11.3 0.00 0.00 0.00 57 1014.2
20260501215256 7 287 6.4 11.3 0.00 0.00 0.00 57 1014.2
20260501215150 7 304 6.4 6.4 0.00 0.00 0.00 58 1014.2
20260501215044 7 271 4.8 6.4 0.00 0.00 0.00 56 1014.2
20260501214939 7 328 3.2 6.4 0.00 0.00 0.00 57 1014.2
20260501214833 7 341 1.6 11.3 0.00 0.00 0.00 57 1014.2
20260501214807 7 18 1.6 11.3 0.00 0.00 0.00 57 1014.2
20260501214728 8 325 4.8 11.3 0.00 0.00 0.00 56 1014.2
20260501214622 8 332 0.0 11.3 0.00 0.00 0.00 56 1014.2
20260501214515 8 356 3.2 14.5 0.00 0.00 0.00 56 1014.2
20260501214409 7 5 0.0 14.5 0.00 0.00 0.00 57 1014.2
20260501214304 7 92 3.2 14.5 0.00 0.00 0.00 57 1014.2
20260501214158 7 326 3.2 14.5 0.00 0.00 0.00 57 1014.2
20260501214053 7 310 6.4 14.5 0.00 0.00 0.00 57 1014.2
20260501213947 7 343 9.7 14.5 0.00 0.00 0.00 56 1014.2
20260501213841 7 43 4.8 14.5 0.00 0.00 0.00 56 1013.9
20260501213736 7 293 4.8 14.5 0.00 0.00 0.00 56 1013.9
20260501213630 8 330 8.0 14.5 0.00 0.00 0.00 56 1014.2
20260501213523 8 324 6.4 14.5 0.00 0.00 0.00 55 1014.2
20260501213419 8 316 3.2 14.5 0.00 0.00 0.00 56 1014.2
20260501213312 8 38 3.2 14.5 0.00 0.00 0.00 55 1014.2
20260501213246 8 355 9.7 14.5 0.00 0.00 0.00 55 1014.2
20260501213207 8 331 1.6 9.7 0.00 0.00 0.00 56 1013.9
20260501213101 8 5 3.2 9.7 0.00 0.00 0.00 55 1014.2
20260501212955 8 318 0.0 0.0 0.00 0.00 0.00 56 1014.2
20260501212849 8 330 0.0 0.0 0.00 0.00 0.00 55 1013.9
20260501212743 8 338 0.0 0.0 0.00 0.00 0.00 54 1013.9
20260501212021 8 353 6.4 14.5 0.00 0.00 0.00 55 1013.9
20260501211917 7 50 3.2 14.5 0.00 0.00 0.00 56 1013.9
20260501211811 7 328 8.0 14.5 0.00 0.00 0.00 55 1013.9
20260501211706 7 50 1.6 12.9 0.00 0.00 0.00 56 1013.9
20260501211640 7 23 0.0 12.9 0.00 0.00 0.00 55 1013.9
20260501211600 7 333 3.2 12.9 0.00 0.00 0.00 56 1013.9
20260501211455 7 328 4.8 12.9 0.00 0.00 0.00 56 1013.9
20260501211349 7 2 4.8 12.9 0.00 0.00 0.00 55 1014.2
20260501211244 7 348 6.4 12.9 0.00 0.00 0.00 55 1013.5
20260501211138 7 343 0.0 12.9 0.00 0.00 0.00 55 1013.9
20260501211033 8 320 9.7 12.9 0.00 0.00 0.00 54 1014.2
20260501210928 8 101 3.2 11.3 0.00 0.00 0.00 56 1013.9
20260501210822 8 325 0.0 11.3 0.00 0.00 0.00 56 1013.9
20260501210729 8 272 3.2 11.3 0.00 0.00 0.00 55 1013.9
20260501210629 8 353 0.0 11.3 0.00 0.00 0.00 55 1013.9
20260501210611 8 28 0.0 11.3 0.00 0.00 0.00 55 1013.9
20260501210506 8 67 0.0 11.3 0.00 0.00 0.00 56 1013.9
20260501210401 8 279 0.0 11.3 0.00 0.00 0.00 57 1013.9
20260501210255 8 341 1.6 11.3 0.00 0.00 0.00 55 1013.9
20260501210149 8 276 4.8 11.3 0.00 0.00 0.00 55 1013.9
20260501210124 8 40 0.0 11.3 0.00 0.00 0.00 55 1013.9
20260501210058 8 353 8.0 11.3 0.00 0.00 0.00 55 1013.9
20260501205939 8 331 3.2 11.3 0.00 0.00 0.00 54 1013.9
20260501205834 8 346 0.0 11.3 0.00 0.00 0.00 54 1013.5
20260501205727 8 1 0.0 11.3 0.00 0.00 0.00 54 1013.5
20260501205622 8 16 0.0 11.3 0.00 0.00 0.00 54 1013.9
20260501205517 8 315 8.0 11.3 0.00 0.00 0.00 54 1013.9
20260501205412 8 333 6.4 11.3 0.00 0.00 0.00 54 1013.9
20260501205306 8 49 1.6 11.3 0.00 0.00 0.00 55 1013.9
20260501205201 8 339 6.4 11.3 0.00 0.00 0.00 54 1013.9
20260501205111 8 315 0.0 11.3 0.00 0.00 0.00 54 1013.9
20260501205054 8 275 0.0 11.3 0.00 0.00 0.00 54 1013.9
20260501204948 8 294 1.6 11.3 0.00 0.00 0.00 56 1013.9
20260501204843 8 338 1.6 11.3 0.00 0.00 0.00 55 1013.9
20260501204737 8 3 4.8 11.3 0.00 0.00 0.00 55 1013.9
20260501204632 8 246 6.4 11.3 0.00 0.00 0.00 53 1013.5
20260501204606 8 236 8.0 11.3 0.00 0.00 0.00 53 1013.5
20260501204527 8 161 1.6 11.3 0.00 0.00 0.00 54 1013.9
20260501204421 8 33 0.0 11.3 0.00 0.00 0.00 55 1013.9
20260501204315 8 330 3.2 11.3 0.00 0.00 0.00 53 1013.5
20260501204211 8 318 3.2 11.3 0.00 0.00 0.00 54 1013.5
20260501204104 8 339 3.2 11.3 0.00 0.00 0.00 54 1013.9
20260501204000 8 260 3.2 11.3 0.00 0.00 0.00 52 1013.9
20260501203854 8 347 0.0 11.3 0.00 0.00 0.00 54 1013.5
20260501203748 8 325 0.0 11.3 0.00 0.00 0.00 57 1013.5
20260501203644 8 251 0.0 11.3 0.00 0.00 0.00 56 1013.9
20260501203557 8 247 1.6 11.3 0.00 0.00 0.00 55 1013.9
20260501203537 8 341 4.8 11.3 0.00 0.00 0.00 55 1013.9
20260501203433 8 300 8.0 11.3 0.00 0.00 0.00 54 1013.5
20260501203327 8 327 6.4 9.7 0.00 0.00 0.00 56 1013.9
20260501203217 8 253 3.2 9.7 0.00 0.00 0.00 55 1013.5
20260501203111 8 326 0.0 6.4 0.00 0.00 0.00 57 1013.5
20260501203056 8 280 0.0 9.7 0.00 0.00 0.00 57 1013.5
20260501203006 8 89 0.0 9.7 0.00 0.00 0.00 57 1013.9
20260501202900 8 346 3.2 9.7 0.00 0.00 0.00 59 1013.9
20260501202754 8 308 0.0 9.7 0.00 0.00 0.00 58 1013.9
20260501202650 8 292 3.2 9.7 0.00 0.00 0.00 58 1013.9
20260501202551 8 340 3.2 9.7 0.00 0.00 0.00 58 1013.9
20260501202544 8 329 0.0 9.7 0.00 0.00 0.00 58 1013.9
20260501202439 8 321 0.0 11.3 0.00 0.00 0.00 57 1013.9
20260501202333 8 338 3.2 11.3 0.00 0.00 0.00 57 1013.9
20260501202228 8 310 4.8 11.3 0.00 0.00 0.00 57 1013.9
20260501202122 8 321 6.4 11.3 0.00 0.00 0.00 55 1014.2
20260501202043 8 305 4.8 11.3 0.00 0.00 0.00 57 1014.2
20260501202015 8 279 1.6 11.3 0.00 0.00 0.00 57 1013.9
20260501201909 8 261 1.6 11.3 0.00 0.00 0.00 57 1013.9
20260501201804 8 242 0.0 11.3 0.00 0.00 0.00 57 1013.9
20260501201658 8 353 3.2 11.3 0.00 0.00 0.00 57 1013.5
20260501201538 8 204 1.6 11.3 0.00 0.00 0.00 57 1013.9
20260501201447 8 11 6.4 11.3 0.00 0.00 0.00 56 1013.9
20260501201342 8 345 1.6 4.8 0.00 0.00 0.00 56 1013.9
20260501201236 8 332 1.6 6.4 0.00 0.00 0.00 57 1013.9
20260501201131 8 265 0.0 6.4 0.00 0.00 0.00 56 1013.9
20260501201031 8 40 0.0 6.4 0.00 0.00 0.00 55 1013.9
20260501201024 8 310 0.0 6.4 0.00 0.00 0.00 56 1014.2
20260501200918 8 280 0.0 6.4 0.00 0.00 0.00 56 1013.9
20260501200814 8 344 3.2 6.4 0.00 0.00 0.00 55 1013.9
20260501200720 8 50 3.2 6.4 0.00 0.00 0.00 58 1013.9
20260501200603 8 315 1.6 6.4 0.00 0.00 0.00 57 1013.5
20260501200525 8 113 0.0 9.7 0.00 0.00 0.00 58 1013.9
20260501200457 8 24 3.2 9.7 0.00 0.00 0.00 57 1013.9
20260501200352 8 291 1.6 9.7 0.00 0.00 0.00 57 1013.9
20260501200246 8 254 3.2 9.7 0.00 0.00 0.00 57 1013.9
20260501200140 8 141 1.6 9.7 0.00 0.00 0.00 56 1013.5
20260501200036 8 329 1.6 14.5 0.00 0.00 0.00 58 1013.9
20260501200020 8 354 0.0 14.5 0.00 0.00 0.00 58 1013.5
20260501195929 7 69 0.0 14.5 0.00 0.00 0.00 57 1013.9
20260501195825 7 79 0.0 14.5 0.00 0.00 0.00 57 1013.5
20260501195719 7 17 1.6 16.1 0.00 0.00 0.00 57 1013.9
20260501195614 7 251 0.0 16.1 0.00 0.00 0.00 58 1013.9
20260501195512 7 358 6.4 16.1 0.00 0.00 0.00 58 1013.5
20260501195505 7 324 0.0 16.1 0.00 0.00 0.00 58 1013.5
20260501195400 7 64 0.0 16.1 0.00 0.00 0.00 59 1013.9
20260501195255 8 347 6.4 16.1 0.00 0.00 0.00 59 1013.9
20260501195149 8 25 11.3 16.1 0.00 0.00 0.00 57 1013.9
20260501195044 8 96 3.2 16.1 0.00 0.00 0.00 59 1013.9
20260501195006 8 341 3.2 16.1 0.00 0.00 0.00 59 1013.9
20260501194938 8 23 1.6 16.1 0.00 0.00 0.00 59 1013.9
20260501194832 8 326 4.8 16.1 0.00 0.00 0.00 59 1013.9
20260501194728 8 342 9.7 16.1 0.00 0.00 0.00 58 1013.5
20260501194622 8 315 0.0 11.3 0.00 0.00 0.00 59 1013.5
20260501194516 8 315 0.0 11.3 0.00 0.00 0.00 60 1013.5
20260501194501 8 70 3.2 11.3 0.00 0.00 0.00 59 1013.5
20260501194411 8 335 1.6 11.3 0.00 0.00 0.00 59 1013.5
20260501194305 8 351 9.7 11.3 0.00 0.00 0.00 59 1013.5
20260501194201 8 55 1.6 11.3 0.00 0.00 0.00 59 1013.9
20260501194055 8 359 1.6 11.3 0.00 0.00 0.00 60 1013.5
20260501193956 8 355 4.8 11.3 0.00 0.00 0.00 60 1013.5
20260501193950 8 31 4.8 11.3 0.00 0.00 0.00 61 1013.5
20260501193844 8 332 4.8 11.3 0.00 0.00 0.00 61 1013.5
20260501193738 8 42 8.0 11.3 0.00 0.00 0.00 60 1013.5
20260501193632 8 342 3.2 11.3 0.00 0.00 0.00 60 1013.5
20260501193526 8 343 3.2 9.7 0.00 0.00 0.00 60 1013.5
20260501193449 8 290 1.6 9.7 0.00 0.00 0.00 61 1013.5
20260501193421 8 342 3.2 9.7 0.00 0.00 0.00 61 1013.5
20260501193315 8 9 3.2 11.3 0.00 0.00 0.00 61 1013.5
20260501193209 8 354 3.2 11.3 0.00 0.00 0.00 61 1013.5
20260501193104 8 53 1.6 11.3 0.00 0.00 0.00 61 1013.5
20260501192944 8 68 1.6 11.3 0.00 0.00 0.00 62 1013.5
20260501192853 8 327 3.2 11.3 0.00 0.00 0.00 61 1013.5
20260501192748 8 23 3.2 11.3 0.00 0.00 0.00 61 1013.5
20260501192642 8 44 4.8 11.3 0.00 0.00 0.00 61 1013.5
20260501192536 8 349 3.2 11.3 0.00 0.00 0.00 62 1013.5
20260501192431 8 337 6.4 11.3 0.00 0.00 0.00 61 1013.5
20260501192325 8 11 4.8 11.3 0.00 0.00 0.00 60 1013.9
20260501192220 8 350 1.6 6.4 0.00 0.00 0.00 61 1013.5
20260501192114 8 8 4.8 6.4 0.00 0.00 0.00 60 1013.5
20260501192009 8 330 0.0 4.8 0.00 0.00 0.00 60 1013.5
20260501191932 8 321 1.6 4.8 0.00 0.00 0.00 60 1013.5
20260501191904 8 333 3.2 4.8 0.00 0.00 0.00 59 1013.5
20260501191758 8 50 0.0 4.8 0.00 0.00 0.00 60 1013.5
20260501191652 9 321 1.6 4.8 0.00 0.00 0.00 59 1013.5
20260501191547 9 351 4.8 4.8 0.00 0.00 0.00 57 1013.5
20260501191454 9 123 3.2 4.8 0.00 0.00 0.00 58 1013.5
20260501191425 9 52 0.0 4.8 0.00 0.00 0.00 60 1013.5
20260501191335 9 80 0.0 4.8 0.00 0.00 0.00 61 1013.5
20260501191231 9 130 0.0 6.4 0.00 0.00 0.00 60 1013.5
20260501191125 8 37 0.0 9.7 0.00 0.00 0.00 60 1013.9
20260501191019 9 57 3.2 9.7 0.00 0.00 0.00 60 1013.9
20260501190914 9 338 4.8 9.7 0.00 0.00 0.00 58 1013.5
20260501190808 9 359 0.0 9.7 0.00 0.00 0.00 58 1013.5
20260501190702 9 70 0.0 9.7 0.00 0.00 0.00 58 1013.5
20260501190557 8 358 3.2 9.7 0.00 0.00 0.00 58 1013.5
20260501190451 8 2 1.6 9.7 0.00 0.00 0.00 59 1013.5
20260501190414 8 319 1.6 9.7 0.00 0.00 0.00 58 1013.9
20260501190346 9 329 1.6 9.7 0.00 0.00 0.00 58 1013.9
20260501190253 10 330 8.0 9.7 0.00 0.00 0.00 56 1013.5
20260501190134 10 336 1.6 9.7 0.00 0.00 0.00 57 1013.5
20260501190030 10 26 1.6 9.7 0.00 0.00 0.00 59 1013.5
20260501185924 10 27 4.8 9.7 0.00 0.00 0.00 57 1013.5
20260501185909 10 5 4.8 9.7 0.00 0.00 0.00 58 1013.5
20260501185818 9 67 1.6 9.7 0.00 0.00 0.00 58 1013.5
20260501185713 9 85 3.2 9.7 0.00 0.00 0.00 58 1013.5
20260501185606 9 49 3.2 9.7 0.00 0.00 0.00 58 1013.5
20260501185501 9 61 3.2 9.7 0.00 0.00 0.00 58 1013.5
20260501185403 9 88 3.2 9.7 0.00 0.00 0.00 58 1013.5
20260501185355 9 101 1.6 9.7 0.00 0.00 0.00 59 1013.5
20260501185251 9 346 3.2 16.1 0.00 0.00 0.00 58 1013.5
20260501185145 8 89 1.6 16.1 0.00 0.00 0.00 58 1013.5
20260501185039 8 304 6.4 16.1 0.00 0.00 0.00 58 1013.5
20260501184933 8 47 3.2 16.1 0.00 0.00 0.00 59 1013.5
20260501184857 8 332 1.6 16.1 0.00 0.00 0.00 59 1013.5
20260501184828 8 96 1.6 16.1 0.00 0.00 0.00 59 1013.5
20260501184723 8 27 3.2 16.1 0.00 0.00 0.00 58 1013.5
20260501184615 8 88 0.0 16.1 0.00 0.00 0.00 59 1013.5
20260501184510 8 197 3.2 16.1 0.00 0.00 0.00 59 1013.5
20260501184404 8 16 6.4 16.1 0.00 0.00 0.00 58 1013.5
20260501184349 8 286 6.4 16.1 0.00 0.00 0.00 57 1013.5
20260501184259 8 329 9.7 11.3 0.00 0.00 0.00 57 1013.5
20260501184153 8 337 3.2 11.3 0.00 0.00 0.00 58 1013.5
20260501184047 8 347 0.0 11.3 0.00 0.00 0.00 57 1013.5
20260501183943 8 50 0.0 11.3 0.00 0.00 0.00 59 1013.1
20260501183837 8 353 9.7 11.3 0.00 0.00 0.00 57 1013.5
20260501183732 8 53 8.0 9.7 0.00 0.00 0.00 57 1013.5
20260501183626 8 333 0.0 11.3 0.00 0.00 0.00 56 1013.5
20260501183534 8 37 4.8 17.7 0.00 0.00 0.00 57 1013.5
20260501183415 8 330 4.8 17.7 0.00 0.00 0.00 56 1013.5
20260501183339 8 248 1.6 17.7 0.00 0.00 0.00 57 1013.5
20260501183310 8 127 0.0 17.7 0.00 0.00 0.00 58 1013.5
20260501183204 8 314 3.2 17.7 0.00 0.00 0.00 57 1013.5
20260501183059 8 299 3.2 17.7 0.00 0.00 0.00 58 1013.5
20260501182954 8 40 4.8 17.7 0.00 0.00 0.00 58 1013.5
20260501182848 8 311 3.2 17.7 0.00 0.00 0.00 57 1013.5
20260501182832 8 312 1.6 17.7 0.00 0.00 0.00 57 1013.5
20260501182743 8 304 3.2 17.7 0.00 0.00 0.00 57 1013.5
20260501182638 8 350 4.8 17.7 0.00 0.00 0.00 56 1013.5
20260501182531 8 323 9.7 12.9 0.00 0.00 0.00 56 1013.5
20260501182425 8 33 1.6 14.5 0.00 0.00 0.00 56 1013.5
20260501182326 8 35 3.2 14.5 0.00 0.00 0.00 55 1013.5
20260501182320 8 290 3.2 14.5 0.00 0.00 0.00 55 1013.5
20260501182214 8 309 3.2 14.5 0.00 0.00 0.00 58 1013.5
20260501182110 8 297 1.6 14.5 0.00 0.00 0.00 57 1013.5
20260501182004 8 338 4.8 14.5 0.00 0.00 0.00 57 1013.5
20260501181858 8 96 1.6 14.5 0.00 0.00 0.00 57 1013.1
20260501181822 8 25 6.4 14.5 0.00 0.00 0.00 57 1013.5
20260501181753 8 346 4.8 14.5 0.00 0.00 0.00 57 1013.5
20260501181648 8 339 6.4 14.5 0.00 0.00 0.00 57 1013.5
20260501181541 8 308 6.4 14.5 0.00 0.00 0.00 57 1013.5
20260501181435 8 290 1.6 12.9 0.00 0.00 0.00 57 1013.5
20260501181314 8 287 1.6 12.9 0.00 0.00 0.00 58 1013.5
20260501181224 8 304 4.8 22.5 0.00 0.00 0.00 59 1013.1
20260501181119 8 269 1.6 22.5 0.00 0.00 0.00 59 1013.1
20260501181014 8 331 3.2 22.5 0.00 0.00 0.00 57 1013.5
20260501180908 8 354 6.4 22.5 0.00 0.00 0.00 57 1013.1
20260501180809 8 305 6.4 22.5 0.00 0.00 0.00 59 1013.1
20260501180803 8 230 3.2 22.5 0.00 0.00 0.00 58 1013.1
20260501180657 8 323 4.8 22.5 0.00 0.00 0.00 58 1013.1
20260501180551 8 11 3.2 22.5 0.00 0.00 0.00 57 1013.1
20260501180447 8 25 4.8 22.5 0.00 0.00 0.00 57 1012.8
20260501180341 8 162 3.2 22.5 0.00 0.00 0.00 57 1013.1
20260501180303 8 321 6.4 22.5 0.00 0.00 0.00 56 1013.1
20260501180235 8 45 8.0 14.5 0.00 0.00 0.00 55 1013.1
20260501180130 8 323 3.2 14.5 0.00 0.00 0.00 56 1013.1
20260501180024 8 328 1.6 14.5 0.00 0.00 0.00 57 1013.1
20260501175919 8 346 3.2 14.5 0.00 0.00 0.00 57 1013.5
20260501175813 8 343 6.4 14.5 0.00 0.00 0.00 57 1013.1
20260501175758 8 343 6.4 14.5 0.00 0.00 0.00 57 1013.1
20260501175708 8 340 4.8 14.5 0.00 0.00 0.00 58 1013.1
20260501175604 8 61 3.2 12.9 0.00 0.00 0.00 58 1013.1
20260501175458 8 322 6.4 12.9 0.00 0.00 0.00 57 1013.5
20260501175352 8 346 3.2 11.3 0.00 0.00 0.00 57 1013.1
20260501175247 8 331 3.2 11.3 0.00 0.00 0.00 57 1013.1
20260501175141 8 42 1.6 11.3 0.00 0.00 0.00 56 1013.1
20260501175036 8 338 3.2 11.3 0.00 0.00 0.00 56 1013.1
20260501174930 8 308 0.0 11.3 0.00 0.00 0.00 55 1012.8
20260501174825 8 346 6.4 9.7 0.00 0.00 0.00 56 1013.1
20260501174748 8 55 0.0 9.7 0.00 0.00 0.00 57 1013.1
20260501174719 8 274 1.6 9.7 0.00 0.00 0.00 57 1013.1
20260501174613 8 349 0.0 9.7 0.00 0.00 0.00 56 1013.1
20260501174508 8 327 0.0 9.7 0.00 0.00 0.00 56 1013.5
20260501174402 8 318 3.2 9.7 0.00 0.00 0.00 56 1013.1
20260501174310 8 344 6.4 9.7 0.00 0.00 0.00 55 1013.5
20260501174241 8 340 8.0 9.7 0.00 0.00 0.00 55 1013.5
20260501174151 8 308 3.2 9.7 0.00 0.00 0.00 55 1013.1
20260501174046 8 314 6.4 9.7 0.00 0.00 0.00 55 1013.1
20260501173940 8 68 3.2 14.5 0.00 0.00 0.00 56 1013.1
20260501173834 8 303 0.0 14.5 0.00 0.00 0.00 57 1013.1
20260501173736 8 307 4.8 14.5 0.00 0.00 0.00 56 1013.1
20260501173729 8 332 3.2 14.5 0.00 0.00 0.00 56 1013.1
20260501173624 8 345 0.0 14.5 0.00 0.00 0.00 56 1013.5
20260501173519 8 328 1.6 14.5 0.00 0.00 0.00 59 1013.1
20260501173413 8 323 0.0 14.5 0.00 0.00 0.00 57 1013.1
20260501173303 8 335 0.0 14.5 0.00 0.00 0.00 57 1013.1
20260501173227 8 335 0.0 14.5 0.00 0.00 0.00 57 1013.5
20260501173158 8 16 0.0 14.5 0.00 0.00 0.00 57 1013.5
20260501173052 8 326 0.0 14.5 0.00 0.00 0.00 56 1013.1
20260501172948 8 5 9.7 12.9 0.00 0.00 0.00 55 1013.1
20260501172842 8 336 0.0 12.9 0.00 0.00 0.00 55 1013.1
20260501172722 8 317 0.0 12.9 0.00 0.00 0.00 56 1013.1
20260501172631 8 311 1.6 12.9 0.00 0.00 0.00 55 1013.1
20260501172525 8 353 6.4 12.9 0.00 0.00 0.00 55 1013.1
20260501172420 8 32 3.2 16.1 0.00 0.00 0.00 56 1013.1
20260501172315 8 316 4.8 16.1 0.00 0.00 0.00 55 1013.1
20260501172216 8 325 0.0 16.1 0.00 0.00 0.00 55 1013.1
20260501172210 8 330 0.0 16.1 0.00 0.00 0.00 55 1013.1
20260501172104 8 324 0.0 16.1 0.00 0.00 0.00 55 1013.1
20260501171958 8 341 0.0 16.1 0.00 0.00 0.00 55 1013.1
20260501171853 8 295 3.2 16.1 0.00 0.00 0.00 54 1013.1
20260501171748 8 302 9.7 16.1 0.00 0.00 0.00 54 1013.1
20260501171711 8 75 0.0 16.1 0.00 0.00 0.00 56 1013.1
20260501171642 8 91 0.0 16.1 0.00 0.00 0.00 55 1013.1
20260501171537 9 354 4.8 16.1 0.00 0.00 0.00 54 1013.1
20260501171432 9 357 9.7 12.9 0.00 0.00 0.00 54 1012.8
20260501171326 9 79 1.6 4.8 0.00 0.00 0.00 55 1013.1
20260501171206 9 186 1.6 4.8 0.00 0.00 0.00 55 1013.1
20260501171115 9 99 1.6 4.8 0.00 0.00 0.00 54 1013.1
20260501171010 9 69 0.0 4.8 0.00 0.00 0.00 54 1013.1
20260501170905 9 57 3.2 4.8 0.00 0.00 0.00 54 1013.1
20260501170759 9 80 3.2 4.8 0.00 0.00 0.00 54 1013.1
20260501170653 9 69 1.6 6.4 0.00 0.00 0.00 56 1013.1
20260501170548 9 130 3.2 9.7 0.00 0.00 0.00 56 1013.1
20260501170442 9 27 0.0 9.7 0.00 0.00 0.00 55 1013.1
20260501170337 10 93 0.0 9.7 0.00 0.00 0.00 54 1013.1
20260501170231 10 36 1.6 9.7 0.00 0.00 0.00 53 1013.1
20260501170154 10 39 1.6 9.7 0.00 0.00 0.00 53 1013.1
20260501170126 10 75 0.0 9.7 0.00 0.00 0.00 54 1013.1
20260501170020 10 345 4.8 9.7 0.00 0.00 0.00 53 1013.1
20260501165916 10 55 1.6 9.7 0.00 0.00 0.00 53 1013.1
20260501165810 10 37 4.8 9.7 0.00 0.00 0.00 53 1013.1
20260501165717 10 53 1.6 9.7 0.00 0.00 0.00 53 1013.1
20260501165649 10 86 6.4 9.7 0.00 0.00 0.00 52 1013.1
20260501165559 11 78 0.0 9.7 0.00 0.00 0.00 53 1013.1
20260501165454 11 13 0.0 9.7 0.00 0.00 0.00 52 1013.1
20260501165348 11 49 1.6 9.7 0.00 0.00 0.00 56 1013.1
20260501165243 11 355 1.6 9.7 0.00 0.00 0.00 54 1013.1
20260501165144 10 13 1.6 9.7 0.00 0.00 0.00 53 1013.1
20260501165138 10 276 1.6 9.7 0.00 0.00 0.00 54 1013.1
20260501165045 10 40 0.0 9.7 0.00 0.00 0.00 56 1013.1
20260501164927 10 88 1.6 9.7 0.00 0.00 0.00 57 1012.8
20260501164821 9 131 0.0 9.7 0.00 0.00 0.00 56 1012.8
20260501164742 9 65 0.0 9.7 0.00 0.00 0.00 59 1013.1
20260501164738 9 328 0.0 11.3 0.00 0.00 0.00 59 1013.5
20260501164733 9 27 1.6 11.3 0.00 0.00 0.00 58 1013.1
20260501164729 10 20 6.4 9.7 0.00 0.00 0.00 54 1013.1
20260501164719 10 29 0.0 9.7 0.00 0.00 0.00 55 1013.1
20260501164715 10 31 3.2 9.7 0.00 0.00 0.00 54 1013.1
20260501164706 10 297 0.0 9.7 0.00 0.00 0.00 57 1013.1
20260501164447 9 70 0.0 9.7 0.00 0.00 0.00 57 1013.1
20260501164443 10 337 3.2 9.7 0.00 0.00 0.00 55 1013.1
20260501164434 9 17 4.8 9.7 0.00 0.00 0.00 54 1013.1
20260501164426 9 55 1.6 9.7 0.00 0.00 0.00 58 1013.1
20260501164159 10 338 1.6 9.7 0.00 0.00 0.00 56 1013.1
20260501163938 10 21 1.6 9.7 0.00 0.00 0.00 56 1013.1
20260501163929 8 308 0.0 11.3 0.00 0.00 0.00 58 1013.5
20260501163925 10 8 3.2 9.7 0.00 0.00 0.00 56 1013.5
20260501163917 9 355 3.2 9.7 0.00 0.00 0.00 56 1013.1
20260501163655 9 46 1.6 9.7 0.00 0.00 0.00 58 1013.1
20260501163647 9 53 1.6 9.7 0.00 0.00 0.00 59 1013.1
20260501163426 9 337 3.2 11.3 0.00 0.00 0.00 59 1013.1
20260501163422 8 349 6.4 9.7 0.00 0.00 0.00 60 1013.1
20260501163414 8 337 0.0 9.7 0.00 0.00 0.00 60 1013.5
20260501163405 9 35 0.0 11.3 0.00 0.00 0.00 59 1013.5
20260501163143 9 327 3.2 11.3 0.00 0.00 0.00 58 1013.1
20260501163135 9 2 1.6 11.3 0.00 0.00 0.00 59 1013.1
20260501162913 8 13 3.2 6.4 0.00 0.00 0.00 59 1013.5
20260501162909 8 79 1.6 11.3 0.00 0.00 0.00 58 1013.5
20260501162901 8 328 1.6 11.3 0.00 0.00 0.00 59 1013.5
20260501162852 8 308 0.0 11.3 0.00 0.00 0.00 58 1013.5
20260501162631 8 348 0.0 11.3 0.00 0.00 0.00 59 1013.1
20260501162622 8 23 3.2 11.3 0.00 0.00 0.00 59 1013.1
20260501162359 8 74 4.8 11.3 0.00 0.00 0.00 58 1013.5
20260501162350 8 7 0.0 6.4 0.00 0.00 0.00 59 1013.5
20260501162128 8 33 4.8 6.4 0.00 0.00 0.00 59 1013.5
20260501162120 8 66 1.6 6.4 0.00 0.00 0.00 58 1013.5
20260501161900 8 63 1.6 11.3 0.00 0.00 0.00 59 1013.1
20260501161851 8 357 3.2 11.3 0.00 0.00 0.00 59 1013.5
20260501161843 9 338 3.2 11.3 0.00 0.00 0.00 58 1013.5
20260501161619 9 311 1.6 11.3 0.00 0.00 0.00 60 1013.5
20260501161558 9 330 1.6 11.3 0.00 0.00 0.00 59 1013.5
20260501161338 9 14 1.6 11.3 0.00 0.00 0.00 58 1013.5
20260501161329 9 37 0.0 11.3 0.00 0.00 0.00 57 1013.1
20260501161321 9 4 1.6 11.3 0.00 0.00 0.00 57 1013.1
20260501161009 9 326 6.4 11.3 0.00 0.00 0.00 57 1013.5
20260501160903 9 354 0.0 11.3 0.00 0.00 0.00 58 1013.5
20260501160826 8 317 3.2 11.3 0.00 0.00 0.00 58 1013.1
20260501160822 9 55 1.6 11.3 0.00 0.00 0.00 58 1013.5
20260501160813 9 304 1.6 11.3 0.00 0.00 0.00 57 1013.1
20260501160547 8 317 3.2 11.3 0.00 0.00 0.00 58 1013.1
20260501160441 8 8 3.2 11.3 0.00 0.00 0.00 60 1013.5
20260501160335 9 324 3.2 11.3 0.00 0.00 0.00 57 1013.5
20260501160229 8 344 3.2 6.4 0.00 0.00 0.00 59 1013.5
20260501160125 8 6 4.8 6.4 0.00 0.00 0.00 61 1013.1
20260501160046 8 304 1.6 6.4 0.00 0.00 0.00 61 1013.1
20260501160019 8 339 3.2 6.4 0.00 0.00 0.00 60 1013.5
20260501155914 7 324 1.6 6.4 0.00 0.00 0.00 61 1013.1
20260501155808 7 257 3.2 6.4 0.00 0.00 0.00 59 1013.5
20260501155702 7 318 0.0 6.4 0.00 0.00 0.00 59 1013.5
20260501155555 7 326 4.8 6.4 0.00 0.00 0.00 60 1013.1
20260501155540 7 340 1.6 6.4 0.00 0.00 0.00 61 1013.1
20260501155450 7 268 1.6 6.4 0.00 0.00 0.00 61 1013.5
20260501155345 8 332 3.2 6.4 0.00 0.00 0.00 60 1013.5
20260501155239 8 321 3.2 6.4 0.00 0.00 0.00 60 1013.5
20260501155133 8 356 1.6 6.4 0.00 0.00 0.00 64 1013.1
20260501155034 8 330 1.6 9.7 0.00 0.00 0.00 63 1013.5
20260501155028 8 307 0.0 9.7 0.00 0.00 0.00 63 1013.1
20260501154923 8 323 3.2 9.7 0.00 0.00 0.00 62 1013.5
20260501154818 8 64 3.2 9.7 0.00 0.00 0.00 62 1013.5
20260501154712 8 54 3.2 9.7 0.00 0.00 0.00 65 1013.1
20260501154606 7 15 3.2 9.7 0.00 0.00 0.00 65 1013.5
20260501154529 7 7 0.0 9.7 0.00 0.00 0.00 66 1013.5
20260501154501 7 70 3.2 9.7 0.00 0.00 0.00 65 1013.5
20260501154355 7 316 4.8 9.7 0.00 0.00 0.00 64 1013.5
20260501154250 8 285 3.2 9.7 0.00 0.00 0.00 65 1013.1
20260501154145 8 315 4.8 9.7 0.00 0.00 0.00 64 1013.5
20260501154024 8 312 1.6 4.8 0.00 0.00 0.00 64 1013.5
20260501153934 8 319 4.8 4.8 0.00 0.00 0.00 63 1013.5
20260501153829 8 355 1.6 3.2 0.00 0.00 0.00 66 1013.5
20260501153723 8 342 0.0 1.6 0.00 0.00 0.00 65 1013.5
20260501153617 8 355 0.0 3.2 0.00 0.00 0.00 65 1013.5
20260501153511 8 342 0.0 3.2 0.00 0.00 0.00 66 1013.5
20260501153406 8 318 0.0 3.2 0.00 0.00 0.00 67 1013.5
20260501153301 8 328 0.0 3.2 0.00 0.00 0.00 67 1013.5
20260501153155 9 352 0.0 11.3 0.00 0.00 0.00 67 1013.5
20260501153049 9 334 0.0 11.3 0.00 0.00 0.00 65 1013.5
20260501153012 9 334 0.0 11.3 0.00 0.00 0.00 65 1013.5
20260501152945 9 334 0.0 11.3 0.00 0.00 0.00 65 1013.5
20260501152839 9 13 1.6 11.3 0.00 0.00 0.00 65 1013.5
20260501152733 9 39 1.6 11.3 0.00 0.00 0.00 65 1013.5
20260501152628 9 10 3.2 11.3 0.00 0.00 0.00 65 1013.1
20260501152523 8 59 3.2 11.3 0.00 0.00 0.00 65 1013.5
20260501152508 8 82 1.6 11.3 0.00 0.00 0.00 66 1013.5
20260501152418 8 53 3.2 11.3 0.00 0.00 0.00 67 1013.5
20260501152312 8 48 1.6 11.3 0.00 0.00 0.00 67 1013.5
20260501152206 8 49 3.2 9.7 0.00 0.00 0.00 68 1013.5
20260501152100 8 334 3.2 9.7 0.00 0.00 0.00 68 1013.5
20260501152002 8 356 3.2 9.7 0.00 0.00 0.00 68 1013.5
20260501151955 8 356 3.2 9.7 0.00 0.00 0.00 68 1013.5
20260501151850 8 334 0.0 9.7 0.00 0.00 0.00 70 1013.5
20260501151744 8 344 3.2 9.7 0.00 0.00 0.00 70 1013.5
20260501151630 8 318 1.6 9.7 0.00 0.00 0.00 70 1013.5
20260501151524 8 332 6.4 9.7 0.00 0.00 0.00 69 1013.5
20260501151458 7 338 3.2 6.4 0.00 0.00 0.00 70 1013.5
20260501151418 7 75 0.0 6.4 0.00 0.00 0.00 71 1013.5
20260501151314 7 304 0.0 6.4 0.00 0.00 0.00 71 1013.5
20260501151208 7 330 0.0 6.4 0.00 0.00 0.00 71 1013.5
20260501151102 7 310 1.6 6.4 0.00 0.00 0.00 71 1013.5
20260501150956 8 349 4.8 6.4 0.00 0.00 0.00 70 1013.5
20260501150851 8 321 4.8 6.4 0.00 0.00 0.00 69 1013.5
20260501150746 8 8 1.6 6.4 0.00 0.00 0.00 70 1013.5
20260501150639 8 101 1.6 6.4 0.00 0.00 0.00 68 1013.9
20260501150534 8 68 1.6 6.4 0.00 0.00 0.00 69 1013.5
20260501150502 4 37 1.6 4.8 0.00 0.00 0.00 81 1013.9
20260501150457 6 350 0.0 4.8 0.00 0.00 0.00 76 1013.9
20260501150453 5 357 1.6 9.7 0.00 0.00 0.00 77 1013.9
20260501150447 8 84 0.0 6.4 0.00 0.00 0.00 69 1013.5
20260501150443 5 20 1.6 6.4 0.00 0.00 0.00 80 1013.9
20260501150439 8 29 1.6 6.4 0.00 0.00 0.00 69 1013.5
20260501150430 8 128 1.6 6.4 0.00 0.00 0.00 69 1013.5
20260501150422 8 16 0.0 6.4 0.00 0.00 0.00 70 1013.5
20260501150200 8 356 1.6 6.4 0.00 0.00 0.00 70 1013.9
20260501150152 8 93 3.2 6.4 0.00 0.00 0.00 70 1013.5
20260501150128 8 80 0.0 6.4 0.00 0.00 0.00 69 1013.5
20260501145910 8 121 0.0 6.4 0.00 0.00 0.00 70 1013.5
20260501145907 8 338 0.0 6.4 0.00 0.00 0.00 68 1013.9
20260501145858 8 0 3.2 6.4 0.00 0.00 0.00 67 1013.5
20260501145849 8 69 1.6 6.4 0.00 0.00 0.00 68 1013.5
20260501145627 8 74 3.2 6.4 0.00 0.00 0.00 70 1013.9
20260501145616 8 121 0.0 6.4 0.00 0.00 0.00 70 1013.5
20260501145343 7 98 0.0 6.4 0.00 0.00 0.00 70 1013.9
20260501145335 7 88 1.6 6.4 0.00 0.00 0.00 72 1013.9
20260501145326 7 15 1.6 6.4 0.00 0.00 0.00 71 1013.9
20260501145107 8 349 6.4 6.4 0.00 0.00 0.00 69 1013.9
20260501145057 8 11 0.0 3.2 0.00 0.00 0.00 71 1013.9
20260501145053 7 322 1.6 3.2 0.00 0.00 0.00 71 1013.5
20260501144830 7 33 0.0 3.2 0.00 0.00 0.00 71 1013.5
20260501144826 7 42 0.0 3.2 0.00 0.00 0.00 71 1013.5
20260501144817 7 354 0.0 3.2 0.00 0.00 0.00 71 1013.5
20260501144809 7 351 1.6 3.2 0.00 0.00 0.00 70 1013.5
20260501144800 7 43 0.0 3.2 0.00 0.00 0.00 71 1013.5
20260501144535 7 3 1.6 3.2 0.00 0.00 0.00 71 1013.5
20260501144314 5 22 0.0 9.7 0.00 0.00 0.00 77 1013.9
20260501144310 7 348 1.6 3.2 0.00 0.00 0.00 71 1013.5
20260501144302 7 341 3.2 3.2 0.00 0.00 0.00 71 1013.9
20260501144041 7 33 0.0 3.2 0.00 0.00 0.00 72 1013.5
20260501144026 7 34 0.0 3.2 0.00 0.00 0.00 71 1013.5
20260501144018 8 323 1.6 3.2 0.00 0.00 0.00 70 1013.9
20260501143758 7 16 0.0 3.2 0.00 0.00 0.00 71 1013.9
20260501143749 7 44 0.0 3.2 0.00 0.00 0.00 71 1013.5
20260501143530 8 351 3.2 3.2 0.00 0.00 0.00 70 1013.5
20260501143520 8 29 0.0 3.2 0.00 0.00 0.00 71 1013.5
20260501143516 8 69 1.6 3.2 0.00 0.00 0.00 71 1013.5
20260501143254 8 67 0.0 4.8 0.00 0.00 0.00 72 1013.5
20260501143246 7 59 0.0 4.8 0.00 0.00 0.00 72 1013.5
20260501143237 7 30 0.0 6.4 0.00 0.00 0.00 73 1013.5
20260501143018 7 29 0.0 6.4 0.00 0.00 0.00 72 1013.9
20260501143007 7 24 0.0 9.7 0.00 0.00 0.00 72 1013.5
20260501143003 7 107 0.0 9.7 0.00 0.00 0.00 72 1013.5
20260501142743 7 105 0.0 9.7 0.00 0.00 0.00 74 1013.5
20260501142735 6 10 0.0 9.7 0.00 0.00 0.00 75 1013.9
20260501142514 6 345 0.0 9.7 0.00 0.00 0.00 75 1013.9
20260501142459 6 61 0.0 9.7 0.00 0.00 0.00 75 1013.5
20260501142451 6 342 4.8 9.7 0.00 0.00 0.00 74 1013.5
20260501142231 6 34 3.2 9.7 0.00 0.00 0.00 74 1013.5
20260501142223 6 354 3.2 9.7 0.00 0.00 0.00 74 1013.5
20260501142002 6 351 6.4 9.7 0.00 0.00 0.00 74 1013.5
20260501141951 6 346 3.2 6.4 0.00 0.00 0.00 74 1013.5
20260501141947 6 357 3.2 6.4 0.00 0.00 0.00 74 1013.5
20260501141939 6 320 3.2 4.8 0.00 0.00 0.00 74 1013.9
20260501141714 6 325 3.2 4.8 0.00 0.00 0.00 73 1013.5